Wetterdaten: Sonntag, 12.05.2013
Datum Zeit Temp. Aussen +5cm Feuchte Auss Luftdruck Regen Sonnenschein Regendauer UV Solar Windben
12.05.2013 00:00 10,3 C 8,4 C 86 % 1012,2 hPa 0,0 l/m 0 min 2 min 0,0 UV-I 0 W/m 7,7 km/h (2 Bft)
12.05.2013 00:02 10,2 C 8,4 C 86 % 1012,1 hPa 0,0 l/m 0 min 0 min 0,0 UV-I 0 W/m 2,6 km/h (1 Bft)
12.05.2013 00:06 10,2 C 8,4 C 86 % 1012,0 hPa 0,0 l/m 0 min 0 min 0,0 UV-I 0 W/m 18,0 km/h (3 Bft)
12.05.2013 00:08 10,1 C 8,4 C 86 % 1012,1 hPa 0,0 l/m 0 min 0 min 0,0 UV-I 0 W/m 7,7 km/h (2 Bft)
12.05.2013 00:10 10,1 C 8,4 C 86 % 1012,1 hPa 0,0 l/m 0 min 0 min 0,0 UV-I 0 W/m 2,6 km/h (1 Bft)
12.05.2013 00:12 10,1 C 8,4 C 86 % 1012,1 hPa 0,0 l/m 0 min 2 min 0,0 UV-I 0 W/m 20,6 km/h (4 Bft)
12.05.2013 00:14 10,1 C 8,4 C 86 % 1012,1 hPa 0,0 l/m 0 min 2 min 0,0 UV-I 0 W/m 10,3 km/h (2 Bft)
12.05.2013 00:16 10,1 C 8,4 C 86 % 1012,1 hPa 0,0 l/m 0 min 0 min 0,0 UV-I 0 W/m 10,3 km/h (2 Bft)
12.05.2013 00:18 10,0 C 8,4 C 86 % 1012,1 hPa 0,0 l/m 0 min 0 min 0,0 UV-I 0 W/m 2,6 km/h (1 Bft)
12.05.2013 00:20 10,0 C 8,4 C 86 % 1012,0 hPa 0,0 l/m 0 min 0 min 0,0 UV-I 0 W/m 2,6 km/h (1 Bft)
12.05.2013 00:22 10,0 C 9,0 C 86 % 1012,0 hPa 0,0 l/m 0 min 0 min 0,0 UV-I 0 W/m 7,7 km/h (2 Bft)
12.05.2013 00:24 9,9 C 9,0 C 87 % 1012,0 hPa 0,0 l/m 0 min 0 min 0,0 UV-I 0 W/m 10,3 km/h (2 Bft)
12.05.2013 00:26 9,9 C 9,0 C 87 % 1012,0 hPa 0,0 l/m 0 min 0 min 0,0 UV-I 0 W/m 7,7 km/h (2 Bft)
12.05.2013 00:28 9,9 C 9,0 C 87 % 1012,0 hPa 0,0 l/m 0 min 0 min 0,0 UV-I 0 W/m 10,3 km/h (2 Bft)
12.05.2013 00:30 9,9 C 9,0 C 87 % 1012,0 hPa 0,0 l/m 0 min 0 min 0,0 UV-I 0 W/m 10,3 km/h (2 Bft)
12.05.2013 00:32 9,9 C 9,0 C 87 % 1011,9 hPa 0,0 l/m 0 min 0 min 0,0 UV-I 0 W/m 7,7 km/h (2 Bft)
12.05.2013 00:34 9,9 C 9,0 C 87 % 1012,0 hPa 0,0 l/m 0 min 0 min 0,0 UV-I 0 W/m 12,9 km/h (3 Bft)
12.05.2013 00:36 9,9 C 9,0 C 86 % 1012,0 hPa 0,0 l/m 0 min 0 min 0,0 UV-I 0 W/m 12,9 km/h (3 Bft)
12.05.2013 00:38 9,9 C 9,0 C 87 % 1012,0 hPa 0,0 l/m 0 min 0 min 0,0 UV-I 0 W/m 15,4 km/h (3 Bft)
12.05.2013 00:40 9,8 C 9,0 C 87 % 1011,9 hPa 0,0 l/m 0 min 0 min 0,0 UV-I 0 W/m 12,9 km/h (3 Bft)
12.05.2013 00:42 9,8 C 9,0 C 87 % 1011,8 hPa 0,0 l/m 0 min 0 min 0,0 UV-I 0 W/m 10,3 km/h (2 Bft)
12.05.2013 00:44 9,8 C 9,0 C 87 % 1011,8 hPa 0,0 l/m 0 min 0 min 0,0 UV-I 0 W/m 5,1 km/h (1 Bft)
12.05.2013 00:46 9,8 C 9,0 C 87 % 1011,8 hPa 0,0 l/m 0 min 0 min 0,0 UV-I 0 W/m 10,3 km/h (2 Bft)
12.05.2013 00:48 9,8 C 9,0 C 87 % 1011,8 hPa 0,0 l/m 0 min 0 min 0,0 UV-I 0 W/m 7,7 km/h (2 Bft)
12.05.2013 00:50 9,8 C 9,0 C 87 % 1011,7 hPa 0,0 l/m 0 min 0 min 0,0 UV-I 0 W/m 10,3 km/h (2 Bft)
12.05.2013 00:52 9,8 C 9,0 C 87 % 1011,8 hPa 0,0 l/m 0 min 0 min 0,0 UV-I 0 W/m 15,4 km/h (3 Bft)
12.05.2013 00:54 9,8 C 9,0 C 86 % 1011,8 hPa 0,0 l/m 0 min 0 min 0,0 UV-I 0 W/m 7,7 km/h (2 Bft)
12.05.2013 00:56 9,8 C 9,0 C 86 % 1011,8 hPa 0,0 l/m 0 min 0 min 0,0 UV-I 0 W/m 2,6 km/h (1 Bft)
12.05.2013 00:58 9,8 C 9,0 C 86 % 1011,8 hPa 0,0 l/m 0 min 0 min 0,0 UV-I 0 W/m 15,4 km/h (3 Bft)
12.05.2013 01:00 9,9 C 9,0 C 86 % 1011,8 hPa 0,0 l/m 0 min 0 min 0,0 UV-I 0 W/m 20,6 km/h (4 Bft)
12.05.2013 01:02 9,9 C 9,0 C 86 % 1011,7 hPa 0,0 l/m 0 min 0 min 0,0 UV-I 0 W/m 15,4 km/h (3 Bft)
12.05.2013 01:04 9,9 C 9,0 C 86 % 1011,7 hPa 0,0 l/m 0 min 2 min 0,0 UV-I 0 W/m 10,3 km/h (2 Bft)
12.05.2013 01:06 9,9 C 9,0 C 86 % 1011,6 hPa 0,0 l/m 0 min 0 min 0,0 UV-I 0 W/m 15,4 km/h (3 Bft)
12.05.2013 01:08 9,9 C 9,0 C 86 % 1011,7 hPa 0,0 l/m 0 min 2 min 0,0 UV-I 0 W/m 10,3 km/h (2 Bft)
12.05.2013 01:10 9,9 C 9,0 C 86 % 1011,8 hPa 0,0 l/m 0 min 2 min 0,0 UV-I 0 W/m 10,3 km/h (2 Bft)
12.05.2013 01:12 9,9 C 9,0 C 86 % 1011,8 hPa 0,0 l/m 0 min 0 min 0,0 UV-I 0 W/m 10,3 km/h (2 Bft)
12.05.2013 01:14 9,9 C 9,0 C 86 % 1011,6 hPa 0,0 l/m 0 min 2 min 0,0 UV-I 0 W/m 2,6 km/h (1 Bft)
12.05.2013 01:16 9,9 C 9,0 C 86 % 1011,8 hPa 0,0 l/m 0 min 2 min 0,0 UV-I 0 W/m 15,4 km/h (3 Bft)
12.05.2013 01:18 9,9 C 9,0 C 86 % 1011,8 hPa 0,0 l/m 0 min 2 min 0,0 UV-I 0 W/m 12,9 km/h (3 Bft)
12.05.2013 01:20 9,9 C 8,4 C 86 % 1011,7 hPa 0,0 l/m 0 min 2 min 0,0 UV-I 0 W/m 5,1 km/h (1 Bft)
12.05.2013 01:22 9,9 C 8,4 C 86 % 1011,7 hPa 0,0 l/m 0 min 2 min 0,0 UV-I 0 W/m 12,9 km/h (3 Bft)
12.05.2013 01:24 9,9 C 8,4 C 86 % 1011,7 hPa 0,0 l/m 0 min 2 min 0,0 UV-I 0 W/m 12,9 km/h (3 Bft)
12.05.2013 01:26 9,9 C 8,4 C 86 % 1011,8 hPa 0,0 l/m 0 min 2 min 0,0 UV-I 0 W/m 5,1 km/h (1 Bft)
12.05.2013 01:28 9,9 C 8,4 C 87 % 1011,8 hPa 0,0 l/m 0 min 0 min 0,0 UV-I 0 W/m 2,6 km/h (1 Bft)
12.05.2013 01:30 9,9 C 8,4 C 87 % 1011,8 hPa 0,0 l/m 0 min 2 min 0,0 UV-I 0 W/m 25,7 km/h (4 Bft)
12.05.2013 01:32 9,9 C 8,4 C 87 % 1011,7 hPa 0,0 l/m 0 min 2 min 0,0 UV-I 0 W/m 20,6 km/h (4 Bft)
12.05.2013 01:34 9,8 C 8,4 C 87 % 1011,7 hPa 0,0 l/m 0 min 2 min 0,0 UV-I 0 W/m 20,6 km/h (4 Bft)
12.05.2013 01:36 9,8 C 8,4 C 87 % 1011,6 hPa 0,0 l/m 0 min 2 min 0,0 UV-I 0 W/m 18,0 km/h (3 Bft)
12.05.2013 01:38 9,8 C 8,4 C 87 % 1011,6 hPa 0,0 l/m 0 min 2 min 0,0 UV-I 0 W/m 15,4 km/h (3 Bft)
12.05.2013 01:40 9,8 C 8,4 C 87 % 1011,6 hPa 0,0 l/m 0 min 2 min 0,0 UV-I 0 W/m 12,9 km/h (3 Bft)
12.05.2013 01:42 9,8 C 7,9 C 87 % 1011,6 hPa 0,0 l/m 0 min 2 min 0,0 UV-I 0 W/m 5,1 km/h (1 Bft)
12.05.2013 01:44 9,8 C 7,9 C 87 % 1011,6 hPa 0,0 l/m 0 min 2 min 0,0 UV-I 0 W/m 7,7 km/h (2 Bft)
12.05.2013 01:46 9,7 C 7,9 C 88 % 1011,6 hPa 0,0 l/m 0 min 2 min 0,0 UV-I 0 W/m 7,7 km/h (2 Bft)
12.05.2013 01:48 9,7 C 7,9 C 88 % 1011,6 hPa 0,0 l/m 0 min 2 min 0,0 UV-I 0 W/m 2,6 km/h (1 Bft)
12.05.2013 01:50 9,7 C 7,9 C 88 % 1011,6 hPa 0,0 l/m 0 min 2 min 0,0 UV-I 0 W/m 15,4 km/h (3 Bft)
12.05.2013 01:52 9,7 C 7,9 C 88 % 1011,5 hPa 0,0 l/m 0 min 2 min 0,0 UV-I 0 W/m 7,7 km/h (2 Bft)
12.05.2013 01:54 9,7 C 7,9 C 88 % 1011,5 hPa 0,0 l/m 0 min 2 min 0,0 UV-I 0 W/m 20,6 km/h (4 Bft)
12.05.2013 01:56 9,6 C 7,9 C 89 % 1011,5 hPa 0,0 l/m 0 min 2 min 0,0 UV-I 0 W/m 2,6 km/h (1 Bft)
12.05.2013 01:58 9,6 C 7,9 C 89 % 1011,5 hPa 0,0 l/m 0 min 2 min 0,0 UV-I 0 W/m 12,9 km/h (3 Bft)
12.05.2013 02:00 9,6 C 7,9 C 89 % 1011,5 hPa 0,0 l/m 0 min 2 min 0,0 UV-I 0 W/m 18,0 km/h (3 Bft)
12.05.2013 02:02 9,5 C 7,9 C 89 % 1011,5 hPa 0,0 l/m 0 min 2 min 0,0 UV-I 0 W/m 18,0 km/h (3 Bft)
12.05.2013 02:04 9,5 C 7,9 C 89 % 1011,5 hPa 0,0 l/m 0 min 2 min 0,0 UV-I 0 W/m 5,1 km/h (1 Bft)
12.05.2013 02:06 9,4 C 7,9 C 89 % 1011,4 hPa 0,0 l/m 0 min 2 min 0,0 UV-I 0 W/m 7,7 km/h (2 Bft)
12.05.2013 02:08 9,4 C 7,9 C 89 % 1011,4 hPa 0,0 l/m 0 min 2 min 0,0 UV-I 0 W/m 5,1 km/h (1 Bft)
12.05.2013 02:10 9,4 C 7,9 C 90 % 1011,4 hPa 0,0 l/m 0 min 2 min 0,0 UV-I 0 W/m 7,7 km/h (2 Bft)
12.05.2013 02:12 9,4 C 7,3 C 90 % 1011,4 hPa 0,0 l/m 0 min 2 min 0,0 UV-I 0 W/m 7,7 km/h (2 Bft)
12.05.2013 02:14 9,4 C 7,3 C 90 % 1011,3 hPa 0,0 l/m 0 min 2 min 0,0 UV-I 0 W/m 12,9 km/h (3 Bft)
12.05.2013 02:16 9,3 C 7,3 C 90 % 1011,3 hPa 0,0 l/m 0 min 2 min 0,0 UV-I 0 W/m 10,3 km/h (2 Bft)
12.05.2013 02:18 9,3 C 7,3 C 90 % 1011,3 hPa 0,0 l/m 0 min 2 min 0,0 UV-I 0 W/m 12,9 km/h (3 Bft)
12.05.2013 02:20 9,3 C 7,3 C 90 % 1011,3 hPa 0,0 l/m 0 min 2 min 0,0 UV-I 0 W/m 10,3 km/h (2 Bft)
12.05.2013 02:22 9,3 C 7,3 C 90 % 1011,3 hPa 0,0 l/m 0 min 2 min 0,0 UV-I 0 W/m 7,7 km/h (2 Bft)
12.05.2013 02:24 9,2 C 7,3 C 90 % 1011,3 hPa 0,0 l/m 0 min 2 min 0,0 UV-I 0 W/m 15,4 km/h (3 Bft)
12.05.2013 02:26 9,2 C 7,3 C 91 % 1011,3 hPa 0,0 l/m 0 min 2 min 0,0 UV-I 0 W/m 0,0 km/h (0 Bft)
12.05.2013 02:28 9,2 C 7,3 C 91 % 1011,3 hPa 0,0 l/m 0 min 2 min 0,0 UV-I 0 W/m 5,1 km/h (1 Bft)
12.05.2013 02:30 9,2 C 7,3 C 91 % 1011,3 hPa 0,0 l/m 0 min 0 min 0,0 UV-I 0 W/m 5,1 km/h (1 Bft)
12.05.2013 02:32 9,2 C 7,3 C 91 % 1011,4 hPa 0,0 l/m 0 min 0 min 0,0 UV-I 0 W/m 2,6 km/h (1 Bft)
12.05.2013 02:34 9,2 C 7,3 C 91 % 1011,4 hPa 0,0 l/m 0 min 2 min 0,0 UV-I 0 W/m 5,1 km/h (1 Bft)
12.05.2013 02:36 9,2 C 7,3 C 91 % 1011,5 hPa 0,0 l/m 0 min 0 min 0,0 UV-I 0 W/m 7,7 km/h (2 Bft)
12.05.2013 02:38 9,1 C 7,3 C 91 % 1011,4 hPa 0,0 l/m 0 min 2 min 0,0 UV-I 0 W/m 18,0 km/h (3 Bft)
12.05.2013 02:40 9,1 C 7,3 C 91 % 1011,5 hPa 0,0 l/m 0 min 2 min 0,0 UV-I 0 W/m 12,9 km/h (3 Bft)
12.05.2013 02:42 9,1 C 7,3 C 91 % 1011,5 hPa 0,0 l/m 0 min 2 min 0,0 UV-I 0 W/m 7,7 km/h (2 Bft)
12.05.2013 02:44 9,1 C 7,3 C 91 % 1011,5 hPa 0,0 l/m 0 min 2 min 0,0 UV-I 0 W/m 10,3 km/h (2 Bft)
12.05.2013 02:46 9,1 C 7,3 C 91 % 1011,5 hPa 0,0 l/m 0 min 2 min 0,0 UV-I 0 W/m 12,9 km/h (3 Bft)
12.05.2013 02:48 9,0 C 7,3 C 91 % 1011,5 hPa 0,2 l/m 0 min 2 min 0,0 UV-I 0 W/m 12,9 km/h (3 Bft)
12.05.2013 02:50 9,0 C 7,3 C 91 % 1011,6 hPa 0,0 l/m 0 min 2 min 0,0 UV-I 0 W/m 18,0 km/h (3 Bft)
12.05.2013 02:52 9,0 C 7,3 C 92 % 1011,5 hPa 0,0 l/m 0 min 2 min 0,0 UV-I 0 W/m 15,4 km/h (3 Bft)
12.05.2013 02:54 8,9 C 7,3 C 91 % 1011,5 hPa 0,0 l/m 0 min 2 min 0,0 UV-I 0 W/m 15,4 km/h (3 Bft)
12.05.2013 02:56 8,9 C 7,3 C 92 % 1011,5 hPa 0,0 l/m 0 min 2 min 0,0 UV-I 0 W/m 15,4 km/h (3 Bft)
12.05.2013 02:58 8,9 C 7,3 C 92 % 1011,5 hPa 0,0 l/m 0 min 2 min 0,0 UV-I 0 W/m 5,1 km/h (1 Bft)
12.05.2013 03:00 8,9 C 7,3 C 92 % 1011,5 hPa 0,0 l/m 0 min 2 min 0,0 UV-I 0 W/m 5,1 km/h (1 Bft)
12.05.2013 03:02 8,8 C 7,3 C 92 % 1011,5 hPa 0,0 l/m 0 min 2 min 0,0 UV-I 0 W/m 15,4 km/h (3 Bft)
12.05.2013 03:04 8,8 C 7,3 C 92 % 1011,5 hPa 0,0 l/m 0 min 2 min 0,0 UV-I 0 W/m 15,4 km/h (3 Bft)
12.05.2013 03:06 8,8 C 7,3 C 92 % 1011,5 hPa 0,0 l/m 0 min 2 min 0,0 UV-I 0 W/m 10,3 km/h (2 Bft)
12.05.2013 03:08 8,8 C 7,3 C 92 % 1011,5 hPa 0,0 l/m 0 min 2 min 0,0 UV-I 0 W/m 10,3 km/h (2 Bft)
12.05.2013 03:10 8,7 C 7,3 C 92 % 1011,4 hPa 0,0 l/m 0 min 2 min 0,0 UV-I 0 W/m 7,7 km/h (2 Bft)
12.05.2013 03:12 8,7 C 7,3 C 92 % 1011,4 hPa 0,0 l/m 0 min 0 min 0,0 UV-I 0 W/m 5,1 km/h (1 Bft)
12.05.2013 03:14 8,7 C 7,3 C 92 % 1011,4 hPa 0,0 l/m 0 min 0 min 0,0 UV-I 0 W/m 12,9 km/h (3 Bft)
12.05.2013 03:16 8,7 C 7,3 C 92 % 1011,4 hPa 0,0 l/m 0 min 0 min 0,0 UV-I 0 W/m 7,7 km/h (2 Bft)
12.05.2013 03:18 8,7 C 7,3 C 92 % 1011,4 hPa 0,0 l/m 0 min 0 min 0,0 UV-I 0 W/m 15,4 km/h (3 Bft)
12.05.2013 03:20 8,6 C 7,3 C 92 % 1011,3 hPa 0,0 l/m 0 min 0 min 0,0 UV-I 0 W/m 15,4 km/h (3 Bft)
12.05.2013 03:22 8,6 C 6,8 C 92 % 1011,4 hPa 0,0 l/m 0 min 0 min 0,0 UV-I 0 W/m 5,1 km/h (1 Bft)
12.05.2013 03:24 8,6 C 6,8 C 92 % 1011,3 hPa 0,0 l/m 0 min 2 min 0,0 UV-I 0 W/m 10,3 km/h (2 Bft)
12.05.2013 03:26 8,6 C 7,3 C 92 % 1011,3 hPa 0,0 l/m 0 min 0 min 0,0 UV-I 0 W/m 7,7 km/h (2 Bft)
12.05.2013 03:28 8,6 C 6,8 C 92 % 1011,2 hPa 0,0 l/m 0 min 2 min 0,0 UV-I 0 W/m 2,6 km/h (1 Bft)
12.05.2013 03:30 8,5 C 6,8 C 93 % 1011,2 hPa 0,0 l/m 0 min 0 min 0,0 UV-I 0 W/m 7,7 km/h (2 Bft)
12.05.2013 03:32 8,5 C 6,8 C 93 % 1011,2 hPa 0,0 l/m 0 min 2 min 0,0 UV-I 0 W/m 7,7 km/h (2 Bft)
12.05.2013 03:34 8,5 C 6,8 C 93 % 1011,2 hPa 0,0 l/m 0 min 0 min 0,0 UV-I 0 W/m 5,1 km/h (1 Bft)
12.05.2013 03:36 8,5 C 6,8 C 93 % 1011,2 hPa 0,0 l/m 0 min 0 min 0,0 UV-I 0 W/m 12,9 km/h (3 Bft)
12.05.2013 03:38 8,4 C 6,8 C 93 % 1011,2 hPa 0,0 l/m 0 min 0 min 0,0 UV-I 0 W/m 10,3 km/h (2 Bft)
12.05.2013 03:40 8,4 C 6,8 C 93 % 1011,2 hPa 0,0 l/m 0 min 0 min 0,0 UV-I 0 W/m 7,7 km/h (2 Bft)
12.05.2013 03:42 8,4 C 6,8 C 93 % 1011,2 hPa 0,0 l/m 0 min 0 min 0,0 UV-I 0 W/m 7,7 km/h (2 Bft)
12.05.2013 03:44 8,4 C 6,8 C 93 % 1011,1 hPa 0,0 l/m 0 min 0 min 0,0 UV-I 0 W/m 7,7 km/h (2 Bft)
12.05.2013 03:46 8,4 C 6,8 C 96 % 1011,2 hPa 0,0 l/m 0 min 0 min 0,0 UV-I 0 W/m 2,6 km/h (1 Bft)
12.05.2013 03:48 8,4 C 6,8 C 92 % 1011,1 hPa 0,0 l/m 0 min 0 min 0,0 UV-I 0 W/m 10,3 km/h (2 Bft)
12.05.2013 03:50 8,3 C 6,8 C 92 % 1011,2 hPa 0,0 l/m 0 min 0 min 0,0 UV-I 0 W/m 12,9 km/h (3 Bft)
12.05.2013 03:52 8,3 C 6,8 C 92 % 1011,2 hPa 0,0 l/m 0 min 0 min 0,0 UV-I 0 W/m 10,3 km/h (2 Bft)
12.05.2013 03:54 8,3 C 6,8 C 92 % 1011,1 hPa 0,0 l/m 0 min 0 min 0,0 UV-I 0 W/m 12,9 km/h (3 Bft)
12.05.2013 03:56 8,3 C 6,8 C 92 % 1011,2 hPa 0,0 l/m 0 min 2 min 0,0 UV-I 0 W/m 18,0 km/h (3 Bft)
12.05.2013 03:58 8,3 C 6,8 C 92 % 1011,1 hPa 0,0 l/m 0 min 2 min 0,0 UV-I 0 W/m 7,7 km/h (2 Bft)
12.05.2013 04:00 8,3 C 6,8 C 92 % 1011,2 hPa 0,0 l/m 0 min 2 min 0,0 UV-I 0 W/m 12,9 km/h (3 Bft)
12.05.2013 04:05 8,3 C 6,8 C 92 % 1011,0 hPa 0,0 l/m 0 min 2 min 0,0 UV-I 0 W/m 7,7 km/h (2 Bft)
12.05.2013 04:06 8,3 C 6,8 C 92 % 1011,0 hPa 0,0 l/m 0 min 1 min 0,0 UV-I 0 W/m 0,0 km/h (0 Bft)
12.05.2013 04:08 8,3 C 6,8 C 92 % 1011,0 hPa 0,0 l/m 0 min 2 min 0,0 UV-I 0 W/m 10,3 km/h (2 Bft)
12.05.2013 04:10 8,3 C 6,8 C 92 % 1011,0 hPa 0,0 l/m 0 min 2 min 0,0 UV-I 0 W/m 2,6 km/h (1 Bft)
12.05.2013 04:12 8,3 C 6,8 C 92 % 1011,0 hPa 0,0 l/m 0 min 2 min 0,0 UV-I 0 W/m 18,0 km/h (3 Bft)
12.05.2013 04:14 8,3 C 6,8 C 92 % 1011,0 hPa 0,0 l/m 0 min 2 min 0,0 UV-I 0 W/m 20,6 km/h (4 Bft)
12.05.2013 04:16 8,3 C 6,8 C 92 % 1011,0 hPa 0,0 l/m 0 min 0 min 0,0 UV-I 0 W/m 7,7 km/h (2 Bft)
12.05.2013 04:18 8,3 C 6,8 C 92 % 1011,0 hPa 0,0 l/m 0 min 2 min 0,0 UV-I 0 W/m 7,7 km/h (2 Bft)
12.05.2013 04:20 8,3 C 6,8 C 92 % 1011,1 hPa 0,0 l/m 0 min 2 min 0,0 UV-I 0 W/m 12,9 km/h (3 Bft)
12.05.2013 04:22 8,3 C 6,8 C 93 % 1011,0 hPa 0,0 l/m 0 min 2 min 0,0 UV-I 0 W/m 12,9 km/h (3 Bft)
12.05.2013 04:24 8,2 C 6,8 C 93 % 1011,1 hPa 0,0 l/m 0 min 2 min 0,0 UV-I 0 W/m 18,0 km/h (3 Bft)
12.05.2013 04:26 8,2 C 6,8 C 93 % 1011,0 hPa 0,0 l/m 0 min 2 min 0,0 UV-I 0 W/m 7,7 km/h (2 Bft)
12.05.2013 04:28 8,2 C 6,8 C 93 % 1010,9 hPa 0,0 l/m 0 min 2 min 0,0 UV-I 0 W/m 0,0 km/h (0 Bft)
12.05.2013 04:30 8,2 C 6,8 C 93 % 1011,0 hPa 0,0 l/m 0 min 0 min 0,0 UV-I 0 W/m 10,3 km/h (2 Bft)
12.05.2013 04:32 8,2 C 6,8 C 93 % 1011,0 hPa 0,0 l/m 0 min 0 min 0,0 UV-I 0 W/m 5,1 km/h (1 Bft)
12.05.2013 04:34 8,2 C 6,8 C 93 % 1011,0 hPa 0,0 l/m 0 min 0 min 0,0 UV-I 0 W/m 15,4 km/h (3 Bft)
12.05.2013 04:36 8,2 C 6,8 C 93 % 1011,0 hPa 0,0 l/m 0 min 2 min 0,0 UV-I 0 W/m 7,7 km/h (2 Bft)
12.05.2013 04:38 8,2 C 6,8 C 93 % 1011,0 hPa 0,2 l/m 0 min 2 min 0,0 UV-I 0 W/m 0,0 km/h (0 Bft)
12.05.2013 04:40 8,2 C 6,8 C 93 % 1011,1 hPa 0,0 l/m 0 min 0 min 0,0 UV-I 0 W/m 5,1 km/h (1 Bft)
12.05.2013 04:42 8,2 C 6,8 C 93 % 1011,0 hPa 0,0 l/m 0 min 0 min 0,0 UV-I 0 W/m 12,9 km/h (3 Bft)
12.05.2013 04:44 8,2 C 6,8 C 93 % 1011,0 hPa 0,0 l/m 0 min 0 min 0,0 UV-I 0 W/m 5,1 km/h (1 Bft)
12.05.2013 04:46 8,2 C 6,8 C 93 % 1010,8 hPa 0,0 l/m 0 min 0 min 0,0 UV-I 0 W/m 2,6 km/h (1 Bft)
12.05.2013 04:48 8,2 C 6,8 C 93 % 1010,8 hPa 0,0 l/m 0 min 0 min 0,0 UV-I 0 W/m 7,7 km/h (2 Bft)
12.05.2013 04:50 8,2 C 6,8 C 93 % 1010,9 hPa 0,0 l/m 0 min 0 min 0,0 UV-I 0 W/m 7,7 km/h (2 Bft)
12.05.2013 04:52 8,2 C 6,8 C 93 % 1011,0 hPa 0,0 l/m 0 min 2 min 0,0 UV-I 0 W/m 12,9 km/h (3 Bft)
12.05.2013 04:54 8,1 C 6,8 C 93 % 1011,0 hPa 0,0 l/m 0 min 2 min 0,0 UV-I 0 W/m 15,4 km/h (3 Bft)
12.05.2013 04:56 8,1 C 6,8 C 93 % 1011,0 hPa 0,0 l/m 0 min 0 min 0,0 UV-I 0 W/m 10,3 km/h (2 Bft)
12.05.2013 04:58 8,1 C 6,8 C 93 % 1011,0 hPa 0,0 l/m 0 min 0 min 0,0 UV-I 0 W/m 15,4 km/h (3 Bft)
12.05.2013 05:00 8,1 C 6,8 C 93 % 1011,0 hPa 0,0 l/m 0 min 0 min 0,0 UV-I 0 W/m 12,9 km/h (3 Bft)
12.05.2013 05:02 8,1 C 6,8 C 93 % 1010,9 hPa 0,0 l/m 0 min 0 min 0,0 UV-I 0 W/m 10,3 km/h (2 Bft)
12.05.2013 05:04 8,1 C 6,8 C 93 % 1010,9 hPa 0,0 l/m 0 min 0 min 0,0 UV-I 0 W/m 7,7 km/h (2 Bft)
12.05.2013 05:06 8,1 C 6,8 C 93 % 1011,0 hPa 0,0 l/m 0 min 2 min 0,0 UV-I 0 W/m 20,6 km/h (4 Bft)
12.05.2013 05:08 8,1 C 6,8 C 92 % 1011,0 hPa 0,0 l/m 0 min 2 min 0,0 UV-I 0 W/m 7,7 km/h (2 Bft)
12.05.2013 05:10 8,1 C 6,8 C 93 % 1011,0 hPa 0,0 l/m 0 min 0 min 0,0 UV-I 0 W/m 2,6 km/h (1 Bft)
12.05.2013 05:12 8,1 C 6,8 C 93 % 1011,0 hPa 0,0 l/m 0 min 0 min 0,0 UV-I 0 W/m 15,4 km/h (3 Bft)
12.05.2013 05:14 8,1 C 6,8 C 92 % 1011,0 hPa 0,0 l/m 0 min 0 min 0,0 UV-I 0 W/m 0,0 km/h (0 Bft)
12.05.2013 05:16 8,1 C 6,8 C 93 % 1011,0 hPa 0,0 l/m 0 min 0 min 0,0 UV-I 0 W/m 0,0 km/h (0 Bft)
12.05.2013 05:18 8,1 C 6,8 C 93 % 1010,9 hPa 0,0 l/m 0 min 0 min 0,0 UV-I 0 W/m 10,3 km/h (2 Bft)
12.05.2013 05:20 8,1 C 6,8 C 93 % 1010,9 hPa 0,0 l/m 0 min 0 min 0,0 UV-I 0 W/m 7,7 km/h (2 Bft)
12.05.2013 05:22 8,1 C 6,8 C 92 % 1010,9 hPa 0,0 l/m 0 min 0 min 0,0 UV-I 0 W/m 15,4 km/h (3 Bft)
12.05.2013 05:24 8,1 C 6,8 C 92 % 1010,9 hPa 0,0 l/m 0 min 0 min 0,0 UV-I 0 W/m 2,6 km/h (1 Bft)
12.05.2013 05:26 8,1 C 6,8 C 92 % 1010,9 hPa 0,0 l/m 0 min 0 min 0,0 UV-I 0 W/m 7,7 km/h (2 Bft)
12.05.2013 05:28 8,1 C 6,8 C 92 % 1010,9 hPa 0,0 l/m 0 min 2 min 0,0 UV-I 0 W/m 12,9 km/h (3 Bft)
12.05.2013 05:30 8,1 C 6,8 C 92 % 1011,0 hPa 0,0 l/m 0 min 2 min 0,0 UV-I 0 W/m 5,1 km/h (1 Bft)
12.05.2013 05:32 8,1 C 6,8 C 92 % 1011,0 hPa 0,0 l/m 0 min 2 min 0,0 UV-I 0 W/m 5,1 km/h (1 Bft)
12.05.2013 05:34 8,1 C 6,8 C 92 % 1010,8 hPa 0,0 l/m 0 min 0 min 0,0 UV-I 0 W/m 7,7 km/h (2 Bft)
12.05.2013 05:36 8,1 C 6,8 C 92 % 1010,8 hPa 0,0 l/m 0 min 0 min 0,0 UV-I 0 W/m 2,6 km/h (1 Bft)
12.05.2013 05:38 8,1 C 6,8 C 92 % 1010,8 hPa 0,0 l/m 0 min 0 min 0,0 UV-I 0 W/m 15,4 km/h (3 Bft)
12.05.2013 05:40 8,1 C 6,8 C 92 % 1010,8 hPa 0,0 l/m 0 min 0 min 0,0 UV-I 0 W/m 10,3 km/h (2 Bft)
12.05.2013 05:42 8,1 C 6,8 C 92 % 1010,8 hPa 0,0 l/m 0 min 0 min 0,0 UV-I 0 W/m 0,0 km/h (0 Bft)
12.05.2013 05:44 8,1 C 6,8 C 92 % 1010,9 hPa 0,0 l/m 0 min 0 min 0,0 UV-I 0 W/m 7,7 km/h (2 Bft)
12.05.2013 05:46 8,0 C 7,3 C 92 % 1011,0 hPa 0,0 l/m 0 min 0 min 0,0 UV-I 0 W/m 5,1 km/h (1 Bft)
12.05.2013 05:48 8,0 C 7,3 C 92 % 1011,1 hPa 0,0 l/m 0 min 2 min 0,0 UV-I 0 W/m 2,6 km/h (1 Bft)
12.05.2013 05:50 8,0 C 6,8 C 92 % 1011,1 hPa 0,0 l/m 0 min 2 min 0,0 UV-I 0 W/m 10,3 km/h (2 Bft)
12.05.2013 05:52 8,0 C 6,8 C 92 % 1011,1 hPa 0,0 l/m 0 min 2 min 0,0 UV-I 0 W/m 7,7 km/h (2 Bft)
12.05.2013 05:54 8,0 C 6,8 C 92 % 1011,1 hPa 0,2 l/m 0 min 2 min 0,0 UV-I 0 W/m 5,1 km/h (1 Bft)
12.05.2013 05:56 8,0 C 6,8 C 92 % 1011,0 hPa 0,2 l/m 0 min 2 min 0,0 UV-I 0 W/m 5,1 km/h (1 Bft)
12.05.2013 05:58 8,0 C 6,8 C 92 % 1011,0 hPa 0,0 l/m 0 min 2 min 0,0 UV-I 0 W/m 0,0 km/h (0 Bft)
12.05.2013 06:00 8,0 C 6,8 C 96 % 1011,0 hPa 0,0 l/m 0 min 2 min 0,0 UV-I 0 W/m 0,0 km/h (0 Bft)
12.05.2013 06:02 8,0 C 6,8 C 96 % 1011,0 hPa 0,0 l/m 0 min 0 min 0,0 UV-I 0 W/m 0,0 km/h (0 Bft)
12.05.2013 06:04 8,0 C 6,8 C 92 % 1011,0 hPa 0,0 l/m 0 min 2 min 0,0 UV-I 0 W/m 0,0 km/h (0 Bft)
12.05.2013 06:06 8,0 C 6,8 C 93 % 1011,1 hPa 0,2 l/m 0 min 2 min 0,0 UV-I 0 W/m 12,9 km/h (3 Bft)
12.05.2013 06:08 8,0 C 6,2 C 93 % 1011,1 hPa 0,0 l/m 0 min 2 min 0,0 UV-I 0 W/m 10,3 km/h (2 Bft)
12.05.2013 06:10 7,9 C 6,2 C 93 % 1011,0 hPa 0,2 l/m 0 min 2 min 0,0 UV-I 0 W/m 15,4 km/h (3 Bft)
12.05.2013 06:12 7,9 C 6,2 C 93 % 1010,9 hPa 0,0 l/m 0 min 2 min 0,0 UV-I 0 W/m 0,0 km/h (0 Bft)
12.05.2013 06:14 7,8 C 6,2 C 93 % 1010,9 hPa 0,0 l/m 0 min 2 min 0,0 UV-I 0 W/m 5,1 km/h (1 Bft)
12.05.2013 06:16 7,8 C 6,2 C 93 % 1011,0 hPa 0,0 l/m 0 min 2 min 0,0 UV-I 0 W/m 10,3 km/h (2 Bft)
12.05.2013 06:18 7,8 C 6,2 C 93 % 1011,1 hPa 0,0 l/m 0 min 0 min 0,0 UV-I 0 W/m 0,0 km/h (0 Bft)
12.05.2013 06:20 7,8 C 6,2 C 93 % 1011,1 hPa 0,2 l/m 0 min 2 min 0,0 UV-I 0 W/m 2,6 km/h (1 Bft)
12.05.2013 06:22 7,7 C 6,2 C 93 % 1011,2 hPa 0,2 l/m 0 min 2 min 0,0 UV-I 0 W/m 7,7 km/h (2 Bft)
12.05.2013 06:24 7,7 C 6,2 C 93 % 1011,2 hPa 0,4 l/m 0 min 2 min 0,0 UV-I 0 W/m 2,6 km/h (1 Bft)
12.05.2013 06:26 7,7 C 6,2 C 93 % 1011,2 hPa 0,4 l/m 0 min 2 min 0,0 UV-I 0 W/m 7,7 km/h (2 Bft)
12.05.2013 06:28 7,7 C 6,2 C 93 % 1011,3 hPa 0,0 l/m 0 min 2 min 0,0 UV-I 5 W/m 7,7 km/h (2 Bft)
12.05.2013 06:30 7,7 C 6,2 C 93 % 1011,2 hPa 0,2 l/m 0 min 2 min 0,0 UV-I 5 W/m 12,9 km/h (3 Bft)
12.05.2013 06:32 7,6 C 6,2 C 93 % 1011,2 hPa 0,0 l/m 0 min 2 min 0,0 UV-I 5 W/m 7,7 km/h (2 Bft)
12.05.2013 06:34 7,6 C 6,2 C 93 % 1011,2 hPa 0,2 l/m 0 min 2 min 0,0 UV-I 5 W/m 0,0 km/h (0 Bft)
12.05.2013 06:36 7,6 C 6,2 C 93 % 1011,2 hPa 0,0 l/m 0 min 2 min 0,0 UV-I 9 W/m 12,9 km/h (3 Bft)
12.05.2013 06:38 7,5 C 6,2 C 93 % 1011,1 hPa 0,0 l/m 0 min 2 min 0,0 UV-I 11 W/m 10,3 km/h (2 Bft)
12.05.2013 06:40 7,4 C 6,2 C 93 % 1011,2 hPa 0,0 l/m 0 min 2 min 0,0 UV-I 11 W/m 12,9 km/h (3 Bft)
12.05.2013 06:42 7,4 C 6,2 C 93 % 1011,2 hPa 0,0 l/m 0 min 2 min 0,0 UV-I 14 W/m 2,6 km/h (1 Bft)
12.05.2013 06:44 7,4 C 6,2 C 93 % 1011,2 hPa 0,0 l/m 0 min 0 min 0,0 UV-I 14 W/m 2,6 km/h (1 Bft)
12.05.2013 06:46 7,4 C 6,2 C 93 % 1011,2 hPa 0,0 l/m 0 min 0 min 0,0 UV-I 11 W/m 5,1 km/h (1 Bft)
12.05.2013 06:48 7,4 C 6,2 C 93 % 1011,2 hPa 0,0 l/m 0 min 0 min 0,0 UV-I 12 W/m 5,1 km/h (1 Bft)
12.05.2013 06:50 7,4 C 6,2 C 93 % 1011,2 hPa 0,0 l/m 0 min 0 min 0,0 UV-I 11 W/m 2,6 km/h (1 Bft)
12.05.2013 06:52 7,3 C 6,2 C 93 % 1011,2 hPa 0,0 l/m 0 min 2 min 0,0 UV-I 12 W/m 0,0 km/h (0 Bft)
12.05.2013 06:54 7,3 C 6,2 C 94 % 1011,2 hPa 0,0 l/m 0 min 2 min 0,0 UV-I 14 W/m 2,6 km/h (1 Bft)
12.05.2013 06:56 7,3 C 6,2 C 94 % 1011,2 hPa 0,0 l/m 0 min 2 min 0,0 UV-I 14 W/m 5,1 km/h (1 Bft)
12.05.2013 06:58 7,3 C 6,2 C 94 % 1011,2 hPa 0,0 l/m 0 min 2 min 0,0 UV-I 21 W/m 5,1 km/h (1 Bft)
12.05.2013 07:00 7,4 C 6,2 C 94 % 1011,3 hPa 0,0 l/m 0 min 2 min 0,0 UV-I 26 W/m 7,7 km/h (2 Bft)
12.05.2013 07:02 7,4 C 6,2 C 94 % 1011,3 hPa 0,0 l/m 0 min 0 min 0,0 UV-I 28 W/m 2,6 km/h (1 Bft)
12.05.2013 07:04 7,4 C 6,8 C 94 % 1011,3 hPa 0,0 l/m 0 min 0 min 0,0 UV-I 33 W/m 7,7 km/h (2 Bft)
12.05.2013 07:06 7,4 C 6,8 C 94 % 1011,3 hPa 0,0 l/m 0 min 0 min 0,0 UV-I 40 W/m 0,0 km/h (0 Bft)
12.05.2013 07:08 7,4 C 6,8 C 94 % 1011,3 hPa 0,0 l/m 0 min 2 min 0,0 UV-I 33 W/m 0,0 km/h (0 Bft)
12.05.2013 07:10 7,4 C 6,8 C 94 % 1011,3 hPa 0,0 l/m 0 min 2 min 0,0 UV-I 21 W/m 12,9 km/h (3 Bft)
12.05.2013 07:12 7,4 C 6,8 C 94 % 1011,3 hPa 0,0 l/m 0 min 0 min 0,0 UV-I 19 W/m 2,6 km/h (1 Bft)
12.05.2013 07:14 7,5 C 6,8 C 94 % 1011,3 hPa 0,0 l/m 0 min 2 min 0,0 UV-I 21 W/m 0,0 km/h (0 Bft)
12.05.2013 07:16 7,5 C 6,8 C 95 % 1011,4 hPa 0,0 l/m 0 min 0 min 0,0 UV-I 23 W/m 7,7 km/h (2 Bft)
12.05.2013 07:18 7,5 C 6,8 C 95 % 1011,4 hPa 0,0 l/m 0 min 0 min 0,0 UV-I 23 W/m 7,7 km/h (2 Bft)
12.05.2013 07:20 7,5 C 6,8 C 95 % 1011,5 hPa 0,0 l/m 0 min 0 min 0,0 UV-I 19 W/m 5,1 km/h (1 Bft)
12.05.2013 07:22 7,6 C 6,8 C 95 % 1011,6 hPa 0,0 l/m 0 min 0 min 0,0 UV-I 16 W/m 10,3 km/h (2 Bft)
12.05.2013 07:24 7,6 C 6,2 C 95 % 1011,8 hPa 0,2 l/m 0 min 2 min 0,0 UV-I 21 W/m 12,9 km/h (3 Bft)
12.05.2013 07:26 7,4 C 5,7 C 95 % 1011,8 hPa 0,6 l/m 0 min 2 min 0,0 UV-I 19 W/m 7,7 km/h (2 Bft)
12.05.2013 07:28 7,3 C 5,7 C 95 % 1011,8 hPa 0,4 l/m 0 min 2 min 0,0 UV-I 25 W/m 12,9 km/h (3 Bft)
12.05.2013 07:30 7,2 C 5,1 C 94 % 1011,8 hPa 0,0 l/m 0 min 2 min 0,0 UV-I 30 W/m 12,9 km/h (3 Bft)
12.05.2013 07:32 7,1 C 5,7 C 94 % 1011,8 hPa 0,0 l/m 0 min 2 min 0,0 UV-I 32 W/m 0,0 km/h (0 Bft)
12.05.2013 07:34 7,0 C 5,7 C 94 % 1011,8 hPa 0,0 l/m 0 min 2 min 0,0 UV-I 35 W/m 0,0 km/h (0 Bft)
12.05.2013 07:36 6,9 C 5,7 C 94 % 1011,8 hPa 0,0 l/m 0 min 2 min 0,0 UV-I 39 W/m 2,6 km/h (1 Bft)
12.05.2013 07:38 6,9 C 5,7 C 94 % 1011,8 hPa 0,0 l/m 0 min 2 min 0,0 UV-I 40 W/m 0,0 km/h (0 Bft)
12.05.2013 07:40 6,8 C 5,7 C 94 % 1011,9 hPa 0,0 l/m 0 min 2 min 0,0 UV-I 37 W/m 0,0 km/h (0 Bft)
12.05.2013 07:42 6,8 C 5,7 C 94 % 1011,9 hPa 0,0 l/m 0 min 0 min 0,0 UV-I 37 W/m 7,7 km/h (2 Bft)
12.05.2013 07:44 6,8 C 5,7 C 94 % 1011,9 hPa 0,0 l/m 0 min 0 min 0,0 UV-I 40 W/m 2,6 km/h (1 Bft)
12.05.2013 07:46 6,8 C 5,7 C 94 % 1012,0 hPa 0,0 l/m 0 min 0 min 0,0 UV-I 47 W/m 5,1 km/h (1 Bft)
12.05.2013 07:48 6,8 C 5,7 C 94 % 1012,0 hPa 0,0 l/m 0 min 0 min 0,0 UV-I 54 W/m 0,0 km/h (0 Bft)
12.05.2013 07:50 6,8 C 6,2 C 94 % 1012,0 hPa 0,0 l/m 0 min 0 min 0,0 UV-I 58 W/m 12,9 km/h (3 Bft)
12.05.2013 07:52 6,8 C 6,2 C 94 % 1011,9 hPa 0,0 l/m 0 min 0 min 0,0 UV-I 65 W/m 0,0 km/h (0 Bft)
12.05.2013 07:54 6,8 C 6,2 C 94 % 1012,0 hPa 0,0 l/m 0 min 0 min 0,0 UV-I 76 W/m 0,0 km/h (0 Bft)
12.05.2013 07:56 6,9 C 6,2 C 94 % 1012,0 hPa 0,0 l/m 0 min 0 min 0,0 UV-I 91 W/m 7,7 km/h (2 Bft)
12.05.2013 07:58 6,9 C 6,2 C 94 % 1012,1 hPa 0,0 l/m 0 min 0 min 0,0 UV-I 100 W/m 2,6 km/h (1 Bft)
12.05.2013 08:00 6,9 C 6,2 C 94 % 1012,0 hPa 0,0 l/m 0 min 0 min 0,0 UV-I 104 W/m 0,0 km/h (0 Bft)
12.05.2013 08:02 6,9 C 6,2 C 94 % 1012,0 hPa 0,0 l/m 0 min 0 min 0,0 UV-I 109 W/m 7,7 km/h (2 Bft)
12.05.2013 08:04 6,9 C 6,2 C 95 % 1012,1 hPa 0,0 l/m 0 min 0 min 0,0 UV-I 91 W/m 0,0 km/h (0 Bft)
12.05.2013 08:06 6,9 C 6,2 C 95 % 1012,0 hPa 0,0 l/m 0 min 0 min 0,0 UV-I 98 W/m 7,7 km/h (2 Bft)
12.05.2013 08:08 7,0 C 6,2 C 95 % 1012,0 hPa 0,0 l/m 0 min 0 min 0,0 UV-I 123 W/m 20,6 km/h (4 Bft)
12.05.2013 08:10 7,0 C 6,2 C 95 % 1012,1 hPa 0,0 l/m 2 min 0 min 0,0 UV-I 218 W/m 7,7 km/h (2 Bft)
12.05.2013 08:12 7,1 C 6,2 C 95 % 1012,1 hPa 0,0 l/m 2 min 0 min 0,0 UV-I 343 W/m 10,3 km/h (2 Bft)
12.05.2013 08:14 7,1 C 6,8 C 95 % 1012,1 hPa 0,0 l/m 2 min 0 min 0,0 UV-I 279 W/m 10,3 km/h (2 Bft)
12.05.2013 08:16 7,2 C 6,8 C 95 % 1012,1 hPa 0,0 l/m 2 min 0 min 0,0 UV-I 359 W/m 5,1 km/h (1 Bft)
12.05.2013 08:18 7,3 C 6,8 C 95 % 1012,2 hPa 0,0 l/m 2 min 0 min 0,0 UV-I 213 W/m 7,7 km/h (2 Bft)
12.05.2013 08:20 7,3 C 7,3 C 95 % 1012,2 hPa 0,0 l/m 2 min 0 min 0,0 UV-I 250 W/m 12,9 km/h (3 Bft)
12.05.2013 08:22 7,4 C 7,3 C 95 % 1012,2 hPa 0,0 l/m 0 min 0 min 0,0 UV-I 107 W/m 2,6 km/h (1 Bft)
12.05.2013 08:24 7,5 C 7,3 C 95 % 1012,2 hPa 0,0 l/m 0 min 0 min 0,0 UV-I 86 W/m 18,0 km/h (3 Bft)
12.05.2013 08:26 7,6 C 6,8 C 95 % 1012,3 hPa 0,0 l/m 0 min 2 min 0,0 UV-I 35 W/m 7,7 km/h (2 Bft)
12.05.2013 08:28 7,6 C 6,8 C 95 % 1012,3 hPa 0,2 l/m 0 min 2 min 0,0 UV-I 33 W/m 12,9 km/h (3 Bft)
12.05.2013 08:30 7,5 C 6,2 C 95 % 1012,4 hPa 0,0 l/m 0 min 2 min 0,0 UV-I 35 W/m 10,3 km/h (2 Bft)
12.05.2013 08:32 7,4 C 5,7 C 95 % 1012,4 hPa 0,2 l/m 0 min 2 min 0,0 UV-I 35 W/m 7,7 km/h (2 Bft)
12.05.2013 08:34 7,3 C 5,7 C 95 % 1012,4 hPa 0,0 l/m 0 min 2 min 0,0 UV-I 35 W/m 18,0 km/h (3 Bft)
12.05.2013 08:36 7,2 C 5,7 C 94 % 1012,5 hPa 0,0 l/m 0 min 2 min 0,0 UV-I 37 W/m 7,7 km/h (2 Bft)
12.05.2013 08:38 7,1 C 5,7 C 94 % 1012,6 hPa 0,2 l/m 0 min 2 min 0,0 UV-I 37 W/m 12,9 km/h (3 Bft)
12.05.2013 08:40 6,9 C 5,7 C 94 % 1012,6 hPa 0,0 l/m 0 min 2 min 0,0 UV-I 42 W/m 12,9 km/h (3 Bft)
12.05.2013 08:42 6,9 C 5,1 C 94 % 1012,7 hPa 0,2 l/m 0 min 2 min 0,0 UV-I 58 W/m 18,0 km/h (3 Bft)
12.05.2013 08:44 6,8 C 5,7 C 94 % 1012,7 hPa 0,0 l/m 0 min 2 min 0,0 UV-I 95 W/m 7,7 km/h (2 Bft)
12.05.2013 08:46 6,8 C 5,7 C 94 % 1012,7 hPa 0,0 l/m 0 min 2 min 0,0 UV-I 127 W/m 10,3 km/h (2 Bft)
12.05.2013 08:48 6,8 C 5,7 C 93 % 1012,7 hPa 0,0 l/m 0 min 2 min 0,0 UV-I 151 W/m 18,0 km/h (3 Bft)
12.05.2013 08:50 6,7 C 5,7 C 93 % 1012,8 hPa 0,0 l/m 0 min 2 min 0,0 UV-I 153 W/m 10,3 km/h (2 Bft)
12.05.2013 08:52 6,7 C 5,7 C 94 % 1012,9 hPa 0,0 l/m 0 min 2 min 0,0 UV-I 123 W/m 15,4 km/h (3 Bft)
12.05.2013 08:54 6,7 C 5,7 C 94 % 1012,9 hPa 0,0 l/m 0 min 2 min 0,0 UV-I 70 W/m 18,0 km/h (3 Bft)
12.05.2013 08:56 6,6 C 5,7 C 94 % 1012,9 hPa 0,2 l/m 0 min 2 min 0,0 UV-I 40 W/m 10,3 km/h (2 Bft)
12.05.2013 08:58 6,6 C 5,7 C 94 % 1012,9 hPa 0,0 l/m 0 min 2 min 0,0 UV-I 47 W/m 2,6 km/h (1 Bft)
12.05.2013 09:00 6,5 C 5,7 C 94 % 1012,9 hPa 0,0 l/m 0 min 2 min 0,0 UV-I 54 W/m 12,9 km/h (3 Bft)
12.05.2013 09:02 6,5 C 5,7 C 94 % 1013,0 hPa 0,0 l/m 0 min 2 min 0,0 UV-I 62 W/m 5,1 km/h (1 Bft)
12.05.2013 09:04 6,4 C 5,7 C 94 % 1012,9 hPa 0,2 l/m 0 min 2 min 0,0 UV-I 67 W/m 10,3 km/h (2 Bft)
12.05.2013 09:06 6,4 C 5,7 C 94 % 1012,9 hPa 0,0 l/m 0 min 2 min 0,0 UV-I 76 W/m 10,3 km/h (2 Bft)
12.05.2013 09:08 6,4 C 5,7 C 94 % 1012,9 hPa 0,0 l/m 0 min 0 min 0,0 UV-I 90 W/m 10,3 km/h (2 Bft)
12.05.2013 09:10 6,4 C 5,7 C 94 % 1012,9 hPa 0,0 l/m 0 min 0 min 0,0 UV-I 105 W/m 7,7 km/h (2 Bft)
12.05.2013 09:12 6,3 C 5,7 C 94 % 1012,9 hPa 0,0 l/m 0 min 0 min 0,0 UV-I 132 W/m 5,1 km/h (1 Bft)
12.05.2013 09:14 6,4 C 6,2 C 94 % 1013,0 hPa 0,0 l/m 2 min 0 min 0,0 UV-I 417 W/m 0,0 km/h (0 Bft)
12.05.2013 09:16 6,4 C 6,2 C 94 % 1013,0 hPa 0,0 l/m 2 min 0 min 0,0 UV-I 392 W/m 7,7 km/h (2 Bft)
12.05.2013 09:18 6,5 C 6,8 C 94 % 1013,0 hPa 0,0 l/m 2 min 0 min 0,0 UV-I 515 W/m 7,7 km/h (2 Bft)
12.05.2013 09:20 6,6 C 6,2 C 94 % 1013,0 hPa 0,0 l/m 2 min 0 min 0,0 UV-I 332 W/m 5,1 km/h (1 Bft)
12.05.2013 09:22 6,7 C 6,8 C 94 % 1013,1 hPa 0,0 l/m 2 min 0 min 0,0 UV-I 295 W/m 5,1 km/h (1 Bft)
12.05.2013 09:24 6,8 C 6,8 C 95 % 1013,0 hPa 0,0 l/m 0 min 0 min 0,0 UV-I 220 W/m 10,3 km/h (2 Bft)
12.05.2013 09:26 6,8 C 6,8 C 95 % 1013,1 hPa 0,0 l/m 0 min 0 min 0,0 UV-I 213 W/m 7,7 km/h (2 Bft)
12.05.2013 09:28 6,9 C 6,8 C 95 % 1013,1 hPa 0,0 l/m 0 min 0 min 0,0 UV-I 279 W/m 10,3 km/h (2 Bft)
12.05.2013 09:30 7,0 C 6,8 C 95 % 1013,1 hPa 0,0 l/m 0 min 0 min 0,5 UV-I 279 W/m 7,7 km/h (2 Bft)
12.05.2013 09:32 7,2 C 7,3 C 95 % 1013,1 hPa 0,0 l/m 2 min 0 min 0,0 UV-I 582 W/m 15,4 km/h (3 Bft)
12.05.2013 09:34 7,3 C 7,3 C 95 % 1013,1 hPa 0,0 l/m 2 min 0 min 0,0 UV-I 309 W/m 12,9 km/h (3 Bft)
12.05.2013 09:36 7,3 C 7,3 C 95 % 1013,2 hPa 0,0 l/m 0 min 0 min 0,0 UV-I 281 W/m 20,6 km/h (4 Bft)
12.05.2013 09:38 7,4 C 7,3 C 95 % 1013,1 hPa 0,0 l/m 0 min 0 min 0,0 UV-I 281 W/m 15,4 km/h (3 Bft)
12.05.2013 09:40 7,5 C 7,9 C 95 % 1013,2 hPa 0,0 l/m 2 min 0 min 0,6 UV-I 452 W/m 15,4 km/h (3 Bft)
12.05.2013 09:42 7,5 C 7,3 C 94 % 1013,2 hPa 0,0 l/m 2 min 0 min 0,5 UV-I 452 W/m 18,0 km/h (3 Bft)
12.05.2013 09:44 7,6 C 7,9 C 94 % 1013,1 hPa 0,0 l/m 2 min 0 min 1,0 UV-I 403 W/m 2,6 km/h (1 Bft)
12.05.2013 09:46 7,7 C 9,0 C 94 % 1013,2 hPa 0,0 l/m 2 min 0 min 0,9 UV-I 499 W/m 20,6 km/h (4 Bft)
12.05.2013 09:48 7,8 C 10,7 C 94 % 1013,2 hPa 0,0 l/m 2 min 0 min 1,0 UV-I 508 W/m 5,1 km/h (1 Bft)
12.05.2013 09:50 7,9 C 10,7 C 94 % 1013,2 hPa 0,0 l/m 2 min 0 min 1,0 UV-I 513 W/m 18,0 km/h (3 Bft)
12.05.2013 09:52 8,1 C 11,2 C 94 % 1013,2 hPa 0,0 l/m 2 min 0 min 1,1 UV-I 520 W/m 10,3 km/h (2 Bft)
12.05.2013 09:54 8,2 C 12,3 C 94 % 1013,2 hPa 0,0 l/m 2 min 0 min 1,1 UV-I 536 W/m 12,9 km/h (3 Bft)
12.05.2013 09:56 8,4 C 12,3 C 94 % 1013,2 hPa 0,0 l/m 2 min 0 min 1,1 UV-I 555 W/m 7,7 km/h (2 Bft)
12.05.2013 09:58 8,6 C 12,3 C 93 % 1013,2 hPa 0,0 l/m 2 min 0 min 1,0 UV-I 631 W/m 7,7 km/h (2 Bft)
12.05.2013 10:00 8,7 C 12,9 C 93 % 1013,2 hPa 0,0 l/m 2 min 0 min 1,0 UV-I 559 W/m 7,7 km/h (2 Bft)
12.05.2013 10:02 8,8 C 11,2 C 93 % 1013,2 hPa 0,0 l/m 2 min 0 min 1,3 UV-I 559 W/m 23,2 km/h (4 Bft)
12.05.2013 10:04 8,8 C 11,8 C 92 % 1013,2 hPa 0,0 l/m 2 min 0 min 0,5 UV-I 679 W/m 15,4 km/h (3 Bft)
12.05.2013 10:06 8,9 C 10,7 C 91 % 1013,2 hPa 0,0 l/m 0 min 0 min 0,5 UV-I 302 W/m 12,9 km/h (3 Bft)
12.05.2013 10:08 8,9 C 10,1 C 91 % 1013,2 hPa 0,0 l/m 0 min 0 min 1,0 UV-I 213 W/m 12,9 km/h (3 Bft)
12.05.2013 10:10 9,0 C 9,6 C 91 % 1013,3 hPa 0,0 l/m 0 min 0 min 0,0 UV-I 135 W/m 10,3 km/h (2 Bft)
12.05.2013 10:12 9,0 C 11,2 C 90 % 1013,3 hPa 0,0 l/m 0 min 0 min 1,5 UV-I 156 W/m 15,4 km/h (3 Bft)
12.05.2013 10:14 9,1 C 10,1 C 90 % 1013,4 hPa 0,0 l/m 0 min 0 min 1,1 UV-I 295 W/m 12,9 km/h (3 Bft)
12.05.2013 10:16 9,1 C 9,6 C 89 % 1013,4 hPa 0,0 l/m 0 min 0 min 0,0 UV-I 137 W/m 12,9 km/h (3 Bft)
12.05.2013 10:18 9,1 C 9,0 C 89 % 1013,4 hPa 0,0 l/m 0 min 0 min 0,0 UV-I 197 W/m 15,4 km/h (3 Bft)
12.05.2013 10:20 9,1 C 10,7 C 89 % 1013,4 hPa 0,0 l/m 0 min 0 min 1,6 UV-I 197 W/m 5,1 km/h (1 Bft)
12.05.2013 10:22 9,2 C 11,2 C 89 % 1013,5 hPa 0,0 l/m 2 min 0 min 0,5 UV-I 788 W/m 12,9 km/h (3 Bft)
12.05.2013 10:24 9,2 C 10,7 C 89 % 1013,5 hPa 0,0 l/m 0 min 0 min 0,5 UV-I 230 W/m 12,9 km/h (3 Bft)
12.05.2013 10:26 9,3 C 11,8 C 88 % 1013,5 hPa 0,0 l/m 2 min 0 min 1,7 UV-I 728 W/m 20,6 km/h (4 Bft)
12.05.2013 10:28 9,4 C 12,9 C 87 % 1013,5 hPa 0,0 l/m 2 min 0 min 1,6 UV-I 696 W/m 20,6 km/h (4 Bft)
12.05.2013 10:30 9,4 C 14,6 C 87 % 1013,6 hPa 0,0 l/m 2 min 0 min 1,7 UV-I 738 W/m 10,3 km/h (2 Bft)
12.05.2013 10:32 9,6 C 13,4 C 87 % 1013,6 hPa 0,0 l/m 0 min 0 min 1,4 UV-I 229 W/m 15,4 km/h (3 Bft)
12.05.2013 10:34 9,7 C 11,8 C 86 % 1013,6 hPa 0,0 l/m 0 min 0 min 0,0 UV-I 192 W/m 10,3 km/h (2 Bft)
12.05.2013 10:36 9,7 C 10,7 C 86 % 1013,6 hPa 0,0 l/m 0 min 0 min 0,7 UV-I 209 W/m 15,4 km/h (3 Bft)
12.05.2013 10:38 9,7 C 11,2 C 85 % 1013,6 hPa 0,0 l/m 0 min 0 min 0,7 UV-I 246 W/m 12,9 km/h (3 Bft)
12.05.2013 10:40 9,7 C 11,2 C 85 % 1013,6 hPa 0,0 l/m 0 min 0 min 1,8 UV-I 246 W/m 7,7 km/h (2 Bft)
12.05.2013 10:42 9,8 C 14,0 C 85 % 1013,7 hPa 0,0 l/m 2 min 0 min 1,1 UV-I 798 W/m 12,9 km/h (3 Bft)
12.05.2013 10:44 10,0 C 13,4 C 85 % 1013,6 hPa 0,0 l/m 2 min 0 min 0,9 UV-I 798 W/m 7,7 km/h (2 Bft)
12.05.2013 10:46 10,1 C 12,3 C 84 % 1013,7 hPa 0,0 l/m 0 min 0 min 0,7 UV-I 253 W/m 20,6 km/h (4 Bft)
12.05.2013 10:48 9,9 C 12,9 C 82 % 1013,7 hPa 0,0 l/m 0 min 0 min 1,9 UV-I 313 W/m 10,3 km/h (2 Bft)
12.05.2013 10:50 10,1 C 13,4 C 83 % 1013,7 hPa 0,0 l/m 0 min 0 min 0,0 UV-I 313 W/m 7,7 km/h (2 Bft)
12.05.2013 10:52 10,2 C 12,3 C 83 % 1013,7 hPa 0,0 l/m 0 min 0 min 0,0 UV-I 97 W/m 12,9 km/h (3 Bft)
12.05.2013 10:54 10,2 C 10,1 C 83 % 1013,8 hPa 0,0 l/m 0 min 0 min 0,0 UV-I 60 W/m 18,0 km/h (3 Bft)
12.05.2013 10:56 10,0 C 9,0 C 82 % 1013,8 hPa 0,0 l/m 0 min 2 min 0,0 UV-I 76 W/m 18,0 km/h (3 Bft)
12.05.2013 10:58 9,9 C 8,4 C 82 % 1013,9 hPa 0,0 l/m 0 min 2 min 0,0 UV-I 125 W/m 7,7 km/h (2 Bft)
12.05.2013 11:00 9,7 C 8,4 C 82 % 1013,9 hPa 0,0 l/m 0 min 2 min 0,0 UV-I 155 W/m 15,4 km/h (3 Bft)
12.05.2013 11:02 9,6 C 7,9 C 82 % 1013,9 hPa 0,0 l/m 0 min 2 min 0,5 UV-I 162 W/m 2,6 km/h (1 Bft)
12.05.2013 11:04 9,4 C 7,9 C 83 % 1013,9 hPa 0,0 l/m 0 min 2 min 0,7 UV-I 167 W/m 5,1 km/h (1 Bft)
12.05.2013 11:06 9,3 C 7,9 C 84 % 1014,1 hPa 0,0 l/m 0 min 2 min 1,7 UV-I 178 W/m 20,6 km/h (4 Bft)
12.05.2013 11:08 9,3 C 10,7 C 84 % 1014,0 hPa 0,0 l/m 2 min 0 min 2,5 UV-I 780 W/m 12,9 km/h (3 Bft)
12.05.2013 11:10 9,3 C 12,9 C 85 % 1014,0 hPa 0,0 l/m 2 min 0 min 2,5 UV-I 745 W/m 10,3 km/h (2 Bft)
12.05.2013 11:12 9,4 C 14,0 C 85 % 1014,1 hPa 0,0 l/m 2 min 0 min 2,6 UV-I 744 W/m 18,0 km/h (3 Bft)
12.05.2013 11:14 9,6 C 15,1 C 84 % 1014,0 hPa 0,0 l/m 2 min 2 min 2,6 UV-I 745 W/m 20,6 km/h (4 Bft)
12.05.2013 11:16 9,7 C 16,2 C 84 % 1013,9 hPa 0,0 l/m 2 min 0 min 2,7 UV-I 777 W/m 10,3 km/h (2 Bft)
12.05.2013 11:18 9,9 C 16,8 C 85 % 1014,0 hPa 0,0 l/m 2 min 0 min 2,7 UV-I 789 W/m 10,3 km/h (2 Bft)
12.05.2013 11:20 10,3 C 16,2 C 84 % 1013,9 hPa 0,0 l/m 2 min 0 min 2,7 UV-I 789 W/m 20,6 km/h (4 Bft)
12.05.2013 11:22 10,4 C 16,2 C 81 % 1014,0 hPa 0,0 l/m 2 min 0 min 2,7 UV-I 814 W/m 15,4 km/h (3 Bft)
12.05.2013 11:24 10,6 C 15,7 C 79 % 1013,9 hPa 0,0 l/m 2 min 0 min 2,7 UV-I 789 W/m 12,9 km/h (3 Bft)
12.05.2013 11:26 10,8 C 15,7 C 79 % 1014,1 hPa 0,0 l/m 2 min 0 min 2,8 UV-I 789 W/m 25,7 km/h (4 Bft)
12.05.2013 11:28 10,8 C 15,1 C 78 % 1014,0 hPa 0,0 l/m 2 min 0 min 2,8 UV-I 817 W/m 23,2 km/h (4 Bft)
12.05.2013 11:30 10,9 C 15,1 C 78 % 1014,0 hPa 0,0 l/m 2 min 0 min 2,9 UV-I 768 W/m 15,4 km/h (3 Bft)
12.05.2013 11:32 11,2 C 14,6 C 79 % 1013,9 hPa 0,0 l/m 2 min 0 min 1,4 UV-I 916 W/m 10,3 km/h (2 Bft)
12.05.2013 11:34 11,2 C 13,4 C 79 % 1014,0 hPa 0,0 l/m 0 min 0 min 1,2 UV-I 330 W/m 15,4 km/h (3 Bft)
12.05.2013 11:36 11,0 C 12,3 C 76 % 1014,0 hPa 0,0 l/m 0 min 0 min 1,8 UV-I 334 W/m 12,9 km/h (3 Bft)
12.05.2013 11:38 10,8 C 11,8 C 77 % 1013,9 hPa 0,0 l/m 0 min 0 min 1,2 UV-I 334 W/m 12,9 km/h (3 Bft)
12.05.2013 11:40 10,7 C 12,9 C 76 % 1014,0 hPa 0,0 l/m 2 min 0 min 3,1 UV-I 963 W/m 20,6 km/h (4 Bft)
12.05.2013 11:42 10,9 C 14,6 C 78 % 1014,0 hPa 0,0 l/m 2 min 0 min 2,9 UV-I 942 W/m 18,0 km/h (3 Bft)
12.05.2013 11:44 11,1 C 14,0 C 77 % 1014,0 hPa 0,0 l/m 2 min 0 min 1,9 UV-I 468 W/m 18,0 km/h (3 Bft)
12.05.2013 11:46 11,0 C 12,9 C 75 % 1014,2 hPa 0,0 l/m 2 min 0 min 3,1 UV-I 468 W/m 23,2 km/h (4 Bft)
12.05.2013 11:48 11,1 C 14,6 C 76 % 1014,0 hPa 0,0 l/m 2 min 0 min 3,1 UV-I 960 W/m 12,9 km/h (3 Bft)
12.05.2013 11:50 11,3 C 15,7 C 77 % 1014,0 hPa 0,0 l/m 2 min 0 min 3,0 UV-I 970 W/m 18,0 km/h (3 Bft)
12.05.2013 11:52 11,4 C 16,8 C 76 % 1014,1 hPa 0,0 l/m 2 min 0 min 2,2 UV-I 833 W/m 20,6 km/h (4 Bft)
12.05.2013 11:54 11,4 C 15,7 C 75 % 1014,1 hPa 0,0 l/m 2 min 0 min 2,3 UV-I 833 W/m 18,0 km/h (3 Bft)
12.05.2013 11:56 11,4 C 15,7 C 73 % 1014,1 hPa 0,0 l/m 2 min 0 min 3,4 UV-I 833 W/m 18,0 km/h (3 Bft)
12.05.2013 11:58 11,6 C 15,7 C 76 % 1014,1 hPa 0,0 l/m 2 min 0 min 3,6 UV-I 965 W/m 20,6 km/h (4 Bft)
12.05.2013 12:00 11,6 C 16,2 C 73 % 1014,2 hPa 0,0 l/m 2 min 0 min 3,6 UV-I 1058 W/m 33,5 km/h (5 Bft)
12.05.2013 12:02 11,7 C 16,2 C 72 % 1014,2 hPa 0,0 l/m 2 min 0 min 3,6 UV-I 1058 W/m 15,4 km/h (3 Bft)
12.05.2013 12:04 11,7 C 15,7 C 73 % 1014,2 hPa 0,0 l/m 2 min 0 min 1,9 UV-I 508 W/m 15,4 km/h (3 Bft)
12.05.2013 12:06 11,6 C 14,6 C 72 % 1014,2 hPa 0,0 l/m 0 min 0 min 1,7 UV-I 431 W/m 20,6 km/h (4 Bft)
12.05.2013 12:08 11,4 C 14,6 C 73 % 1014,3 hPa 0,0 l/m 2 min 0 min 1,8 UV-I 671 W/m 18,0 km/h (3 Bft)
12.05.2013 12:10 11,4 C 14,0 C 73 % 1014,3 hPa 0,0 l/m 2 min 0 min 2,1 UV-I 482 W/m 18,0 km/h (3 Bft)
12.05.2013 12:12 11,4 C 14,0 C 72 % 1014,4 hPa 0,0 l/m 2 min 0 min 3,4 UV-I 573 W/m 15,4 km/h (3 Bft)
12.05.2013 12:14 11,4 C 15,7 C 73 % 1014,3 hPa 0,0 l/m 2 min 0 min 3,2 UV-I 1037 W/m 18,0 km/h (3 Bft)
12.05.2013 12:16 11,6 C 16,8 C 73 % 1014,3 hPa 0,0 l/m 2 min 0 min 3,9 UV-I 1037 W/m 15,4 km/h (3 Bft)
12.05.2013 12:18 11,7 C 17,3 C 72 % 1014,4 hPa 0,0 l/m 2 min 0 min 3,9 UV-I 1037 W/m 20,6 km/h (4 Bft)
12.05.2013 12:20 11,7 C 16,8 C 72 % 1014,3 hPa 0,0 l/m 2 min 0 min 3,9 UV-I 1037 W/m 18,0 km/h (3 Bft)
12.05.2013 12:22 11,8 C 16,8 C 73 % 1014,2 hPa 0,0 l/m 2 min 0 min 2,7 UV-I 1037 W/m 20,6 km/h (4 Bft)
12.05.2013 12:24 11,8 C 16,8 C 72 % 1014,4 hPa 0,0 l/m 2 min 0 min 3,7 UV-I 1037 W/m 18,0 km/h (3 Bft)
12.05.2013 12:26 12,1 C 17,9 C 73 % 1014,3 hPa 0,0 l/m 2 min 0 min 3,7 UV-I 953 W/m 12,9 km/h (3 Bft)
12.05.2013 12:28 12,2 C 18,4 C 71 % 1014,2 hPa 0,0 l/m 2 min 0 min 1,4 UV-I 712 W/m 18,0 km/h (3 Bft)
12.05.2013 12:30 12,2 C 15,7 C 71 % 1014,3 hPa 0,0 l/m 0 min 0 min 0,8 UV-I 229 W/m 10,3 km/h (2 Bft)
12.05.2013 12:32 12,1 C 14,0 C 72 % 1014,3 hPa 0,0 l/m 0 min 0 min 0,0 UV-I 169 W/m 10,3 km/h (2 Bft)
12.05.2013 12:34 11,8 C 12,9 C 71 % 1014,3 hPa 0,0 l/m 0 min 0 min 0,8 UV-I 186 W/m 23,2 km/h (4 Bft)
12.05.2013 12:36 11,6 C 11,8 C 73 % 1014,3 hPa 0,0 l/m 0 min 0 min 1,1 UV-I 197 W/m 7,7 km/h (2 Bft)
12.05.2013 12:38 11,4 C 14,6 C 73 % 1014,4 hPa 0,0 l/m 0 min 0 min 3,5 UV-I 197 W/m 10,3 km/h (2 Bft)
12.05.2013 12:40 11,8 C 16,8 C 75 % 1014,4 hPa 0,0 l/m 2 min 0 min 3,7 UV-I 877 W/m 12,9 km/h (3 Bft)
12.05.2013 12:42 12,1 C 17,9 C 74 % 1014,3 hPa 0,0 l/m 2 min 0 min 3,7 UV-I 889 W/m 23,2 km/h (4 Bft)
12.05.2013 12:44 12,3 C 17,9 C 72 % 1014,4 hPa 0,0 l/m 2 min 0 min 3,5 UV-I 896 W/m 20,6 km/h (4 Bft)
12.05.2013 12:46 12,6 C 18,4 C 72 % 1014,3 hPa 0,0 l/m 2 min 0 min 3,5 UV-I 902 W/m 15,4 km/h (3 Bft)
12.05.2013 12:48 12,4 C 18,4 C 69 % 1014,4 hPa 0,0 l/m 2 min 0 min 3,2 UV-I 916 W/m 20,6 km/h (4 Bft)
12.05.2013 12:50 12,4 C 17,3 C 71 % 1014,3 hPa 0,0 l/m 2 min 0 min 1,4 UV-I 933 W/m 12,9 km/h (3 Bft)
12.05.2013 12:52 12,2 C 15,1 C 70 % 1014,3 hPa 0,0 l/m 0 min 0 min 1,3 UV-I 232 W/m 25,7 km/h (4 Bft)
12.05.2013 12:54 11,8 C 13,4 C 72 % 1014,3 hPa 0,0 l/m 0 min 0 min 1,4 UV-I 234 W/m 20,6 km/h (4 Bft)
12.05.2013 12:56 11,7 C 15,1 C 74 % 1014,4 hPa 0,0 l/m 2 min 0 min 1,8 UV-I 1023 W/m 12,9 km/h (3 Bft)
12.05.2013 12:58 12,0 C 15,7 C 78 % 1014,3 hPa 0,0 l/m 2 min 0 min 1,9 UV-I 1023 W/m 7,7 km/h (2 Bft)
12.05.2013 13:00 12,1 C 16,8 C 75 % 1014,3 hPa 0,0 l/m 2 min 0 min 1,9 UV-I 1014 W/m 18,0 km/h (3 Bft)
12.05.2013 13:02 12,2 C 17,9 C 75 % 1014,4 hPa 0,0 l/m 2 min 0 min 1,7 UV-I 1048 W/m 15,4 km/h (3 Bft)
12.05.2013 13:04 12,3 C 16,2 C 74 % 1014,4 hPa 0,0 l/m 2 min 0 min 1,2 UV-I 1048 W/m 23,2 km/h (4 Bft)
12.05.2013 13:06 12,2 C 14,6 C 72 % 1014,4 hPa 0,0 l/m 0 min 0 min 1,1 UV-I 411 W/m 15,4 km/h (3 Bft)
12.05.2013 13:08 11,9 C 13,4 C 73 % 1014,4 hPa 0,0 l/m 0 min 0 min 0,7 UV-I 250 W/m 18,0 km/h (3 Bft)
12.05.2013 13:10 11,6 C 12,3 C 74 % 1014,5 hPa 0,0 l/m 0 min 0 min 0,8 UV-I 221 W/m 25,7 km/h (4 Bft)
12.05.2013 13:12 11,3 C 11,2 C 75 % 1014,6 hPa 0,0 l/m 0 min 0 min 1,2 UV-I 227 W/m 20,6 km/h (4 Bft)
12.05.2013 13:14 11,0 C 11,8 C 76 % 1014,5 hPa 0,0 l/m 0 min 0 min 1,7 UV-I 316 W/m 7,7 km/h (2 Bft)
12.05.2013 13:16 10,9 C 12,9 C 76 % 1014,5 hPa 0,0 l/m 2 min 0 min 1,9 UV-I 613 W/m 25,7 km/h (4 Bft)
12.05.2013 13:18 11,2 C 15,7 C 76 % 1014,5 hPa 0,0 l/m 2 min 0 min 2,0 UV-I 1000 W/m 18,0 km/h (3 Bft)
12.05.2013 13:20 11,4 C 15,1 C 76 % 1014,5 hPa 0,0 l/m 0 min 0 min 1,8 UV-I 336 W/m 30,9 km/h (5 Bft)
12.05.2013 13:22 11,3 C 13,4 C 75 % 1014,6 hPa 0,0 l/m 2 min 0 min 1,8 UV-I 480 W/m 33,5 km/h (5 Bft)
12.05.2013 13:24 11,1 C 12,9 C 75 % 1014,5 hPa 0,0 l/m 0 min 0 min 1,8 UV-I 378 W/m 23,2 km/h (4 Bft)
12.05.2013 13:26 11,2 C 14,6 C 76 % 1014,6 hPa 0,0 l/m 0 min 0 min 1,9 UV-I 378 W/m 18,0 km/h (3 Bft)
12.05.2013 13:28 11,6 C 14,6 C 78 % 1014,6 hPa 0,0 l/m 0 min 0 min 1,7 UV-I 304 W/m 7,7 km/h (2 Bft)
12.05.2013 13:30 11,7 C 15,1 C 76 % 1014,6 hPa 0,0 l/m 0 min 0 min 1,7 UV-I 304 W/m 10,3 km/h (2 Bft)
12.05.2013 13:32 11,7 C 15,7 C 75 % 1014,7 hPa 0,0 l/m 2 min 0 min 1,8 UV-I 919 W/m 18,0 km/h (3 Bft)
12.05.2013 13:34 11,7 C 16,8 C 74 % 1014,7 hPa 0,0 l/m 2 min 0 min 1,8 UV-I 907 W/m 20,6 km/h (4 Bft)
12.05.2013 13:36 11,9 C 17,9 C 77 % 1014,6 hPa 0,0 l/m 2 min 0 min 2,0 UV-I 879 W/m 15,4 km/h (3 Bft)
12.05.2013 13:38 12,2 C 15,7 C 74 % 1014,6 hPa 0,0 l/m 2 min 0 min 1,7 UV-I 879 W/m 25,7 km/h (4 Bft)
12.05.2013 13:40 12,1 C 14,0 C 72 % 1014,5 hPa 0,0 l/m 0 min 0 min 1,7 UV-I 221 W/m 20,6 km/h (4 Bft)
12.05.2013 13:42 11,8 C 12,9 C 72 % 1014,5 hPa 0,0 l/m 2 min 0 min 3,0 UV-I 664 W/m 20,6 km/h (4 Bft)
12.05.2013 13:44 11,9 C 12,9 C 74 % 1014,6 hPa 0,0 l/m 2 min 0 min 2,2 UV-I 664 W/m 20,6 km/h (4 Bft)
12.05.2013 13:46 11,9 C 13,4 C 75 % 1014,6 hPa 0,0 l/m 2 min 0 min 3,7 UV-I 1009 W/m 20,6 km/h (4 Bft)
12.05.2013 13:48 12,2 C 13,4 C 75 % 1014,5 hPa 0,0 l/m 2 min 0 min 2,4 UV-I 1009 W/m 7,7 km/h (2 Bft)
12.05.2013 13:50 12,3 C 14,0 C 75 % 1014,7 hPa 0,0 l/m 2 min 0 min 3,9 UV-I 1009 W/m 12,9 km/h (3 Bft)
12.05.2013 13:52 12,3 C 13,4 C 73 % 1014,6 hPa 0,0 l/m 2 min 0 min 4,0 UV-I 1009 W/m 20,6 km/h (4 Bft)
12.05.2013 13:54 12,4 C 14,0 C 74 % 1014,6 hPa 0,0 l/m 2 min 0 min 4,1 UV-I 919 W/m 15,4 km/h (3 Bft)
12.05.2013 13:56 12,7 C 14,0 C 75 % 1014,6 hPa 0,0 l/m 2 min 0 min 4,0 UV-I 879 W/m 12,9 km/h (3 Bft)
12.05.2013 13:58 13,1 C 14,6 C 73 % 1014,7 hPa 0,0 l/m 2 min 0 min 4,0 UV-I 907 W/m 15,4 km/h (3 Bft)
12.05.2013 14:00 13,1 C 14,6 C 72 % 1014,7 hPa 0,0 l/m 0 min 0 min 2,6 UV-I 279 W/m 20,6 km/h (4 Bft)
12.05.2013 14:02 12,9 C 14,0 C 72 % 1014,7 hPa 0,0 l/m 2 min 0 min 2,4 UV-I 1081 W/m 12,9 km/h (3 Bft)
12.05.2013 14:04 12,8 C 14,6 C 73 % 1014,7 hPa 0,0 l/m 2 min 0 min 3,9 UV-I 1081 W/m 20,6 km/h (4 Bft)
12.05.2013 14:06 12,9 C 14,6 C 74 % 1014,7 hPa 0,0 l/m 0 min 0 min 0,8 UV-I 144 W/m 18,0 km/h (3 Bft)
12.05.2013 14:08 12,8 C 12,9 C 71 % 1014,8 hPa 0,0 l/m 0 min 0 min 0,0 UV-I 84 W/m 18,0 km/h (3 Bft)
12.05.2013 14:10 12,5 C 12,3 C 73 % 1014,8 hPa 0,0 l/m 0 min 2 min 0,0 UV-I 74 W/m 15,4 km/h (3 Bft)
12.05.2013 14:12 12,2 C 11,2 C 74 % 1014,9 hPa 0,0 l/m 0 min 2 min 0,0 UV-I 98 W/m 23,2 km/h (4 Bft)
12.05.2013 14:14 11,7 C 10,7 C 74 % 1015,0 hPa 0,0 l/m 0 min 2 min 0,0 UV-I 116 W/m 18,0 km/h (3 Bft)
12.05.2013 14:16 11,4 C 10,7 C 77 % 1015,0 hPa 0,0 l/m 0 min 2 min 0,0 UV-I 139 W/m 15,4 km/h (3 Bft)
12.05.2013 14:18 11,2 C 10,1 C 78 % 1014,9 hPa 0,0 l/m 0 min 2 min 0,0 UV-I 162 W/m 10,3 km/h (2 Bft)
12.05.2013 14:20 11,1 C 9,6 C 79 % 1015,0 hPa 0,0 l/m 0 min 2 min 0,0 UV-I 171 W/m 12,9 km/h (3 Bft)
12.05.2013 14:22 10,9 C 10,1 C 81 % 1014,9 hPa 0,0 l/m 0 min 2 min 0,5 UV-I 227 W/m 5,1 km/h (1 Bft)
12.05.2013 14:24 10,9 C 10,1 C 80 % 1014,9 hPa 0,0 l/m 0 min 0 min 1,3 UV-I 332 W/m 18,0 km/h (3 Bft)
12.05.2013 14:26 11,0 C 10,7 C 80 % 1014,8 hPa 0,0 l/m 0 min 0 min 1,2 UV-I 330 W/m 15,4 km/h (3 Bft)
12.05.2013 14:28 11,1 C 11,2 C 78 % 1014,9 hPa 0,0 l/m 0 min 0 min 1,4 UV-I 359 W/m 18,0 km/h (3 Bft)
12.05.2013 14:30 11,2 C 11,8 C 78 % 1015,0 hPa 0,0 l/m 2 min 0 min 1,6 UV-I 496 W/m 28,3 km/h (4 Bft)
12.05.2013 14:32 11,4 C 11,8 C 77 % 1014,9 hPa 0,0 l/m 0 min 0 min 1,5 UV-I 330 W/m 18,0 km/h (3 Bft)
12.05.2013 14:34 11,5 C 12,3 C 77 % 1014,8 hPa 0,0 l/m 0 min 0 min 3,7 UV-I 313 W/m 15,4 km/h (3 Bft)
12.05.2013 14:36 11,9 C 12,9 C 77 % 1014,9 hPa 0,0 l/m 2 min 0 min 3,9 UV-I 951 W/m 10,3 km/h (2 Bft)
12.05.2013 14:38 12,4 C 13,4 C 78 % 1015,0 hPa 0,0 l/m 2 min 0 min 4,0 UV-I 930 W/m 15,4 km/h (3 Bft)
12.05.2013 14:40 12,7 C 13,4 C 75 % 1015,0 hPa 0,0 l/m 2 min 0 min 4,1 UV-I 918 W/m 23,2 km/h (4 Bft)
12.05.2013 14:42 12,9 C 14,0 C 74 % 1015,0 hPa 0,0 l/m 2 min 0 min 4,0 UV-I 889 W/m 15,4 km/h (3 Bft)
12.05.2013 14:44 13,3 C 14,6 C 76 % 1015,0 hPa 0,0 l/m 2 min 0 min 3,3 UV-I 914 W/m 7,7 km/h (2 Bft)
12.05.2013 14:46 13,6 C 14,6 C 75 % 1015,0 hPa 0,0 l/m 2 min 0 min 4,2 UV-I 1039 W/m 25,7 km/h (4 Bft)
12.05.2013 14:48 13,6 C 14,6 C 74 % 1014,9 hPa 0,0 l/m 0 min 0 min 1,6 UV-I 425 W/m 15,4 km/h (3 Bft)
12.05.2013 14:50 13,3 C 14,0 C 72 % 1014,9 hPa 0,0 l/m 0 min 0 min 0,9 UV-I 262 W/m 15,4 km/h (3 Bft)
12.05.2013 14:52 13,0 C 13,4 C 73 % 1015,0 hPa 0,0 l/m 0 min 0 min 0,9 UV-I 279 W/m 15,4 km/h (3 Bft)
12.05.2013 14:54 12,7 C 12,9 C 73 % 1015,0 hPa 0,0 l/m 0 min 0 min 1,1 UV-I 355 W/m 23,2 km/h (4 Bft)
12.05.2013 14:56 12,5 C 12,9 C 75 % 1015,0 hPa 0,0 l/m 0 min 0 min 1,4 UV-I 387 W/m 15,4 km/h (3 Bft)
12.05.2013 14:58 12,3 C 13,4 C 74 % 1015,0 hPa 0,0 l/m 2 min 0 min 3,9 UV-I 833 W/m 28,3 km/h (4 Bft)
12.05.2013 15:00 12,7 C 14,0 C 76 % 1014,9 hPa 0,0 l/m 2 min 0 min 3,9 UV-I 833 W/m 23,2 km/h (4 Bft)
12.05.2013 15:02 12,9 C 14,0 C 74 % 1014,9 hPa 0,0 l/m 0 min 0 min 3,9 UV-I 383 W/m 15,4 km/h (3 Bft)
12.05.2013 15:04 13,1 C 14,0 C 75 % 1014,9 hPa 0,0 l/m 0 min 0 min 3,8 UV-I 383 W/m 15,4 km/h (3 Bft)
12.05.2013 15:06 13,4 C 14,0 C 76 % 1015,0 hPa 0,0 l/m 2 min 0 min 3,7 UV-I 823 W/m 12,9 km/h (3 Bft)
12.05.2013 15:08 13,3 C 14,0 C 73 % 1014,9 hPa 0,0 l/m 2 min 0 min 3,6 UV-I 817 W/m 15,4 km/h (3 Bft)
12.05.2013 15:10 13,6 C 14,6 C 75 % 1015,0 hPa 0,0 l/m 2 min 0 min 3,6 UV-I 810 W/m 12,9 km/h (3 Bft)
12.05.2013 15:12 13,6 C 14,0 C 72 % 1015,1 hPa 0,0 l/m 2 min 0 min 3,5 UV-I 842 W/m 12,9 km/h (3 Bft)
12.05.2013 15:14 13,6 C 14,0 C 73 % 1015,0 hPa 0,0 l/m 2 min 0 min 1,5 UV-I 842 W/m 18,0 km/h (3 Bft)
12.05.2013 15:16 13,1 C 12,9 C 71 % 1015,0 hPa 0,0 l/m 0 min 0 min 1,7 UV-I 246 W/m 15,4 km/h (3 Bft)
12.05.2013 15:18 12,8 C 13,4 C 72 % 1015,0 hPa 0,0 l/m 2 min 0 min 3,5 UV-I 886 W/m 20,6 km/h (4 Bft)
12.05.2013 15:20 12,8 C 13,4 C 74 % 1015,1 hPa 0,0 l/m 0 min 0 min 2,6 UV-I 251 W/m 23,2 km/h (4 Bft)
12.05.2013 15:22 12,8 C 13,4 C 75 % 1015,1 hPa 0,0 l/m 0 min 0 min 2,6 UV-I 251 W/m 12,9 km/h (3 Bft)
12.05.2013 15:24 13,0 C 14,0 C 75 % 1015,0 hPa 0,0 l/m 0 min 0 min 1,7 UV-I 334 W/m 12,9 km/h (3 Bft)
12.05.2013 15:26 12,9 C 13,4 C 71 % 1015,1 hPa 0,0 l/m 0 min 0 min 1,3 UV-I 385 W/m 25,7 km/h (4 Bft)
12.05.2013 15:28 12,7 C 12,9 C 71 % 1015,1 hPa 0,0 l/m 0 min 0 min 1,3 UV-I 292 W/m 18,0 km/h (3 Bft)
12.05.2013 15:30 12,6 C 13,4 C 74 % 1015,1 hPa 0,0 l/m 0 min 0 min 3,1 UV-I 292 W/m 10,3 km/h (2 Bft)
12.05.2013 15:32 12,6 C 13,4 C 73 % 1015,1 hPa 0,0 l/m 0 min 0 min 1,5 UV-I 292 W/m 15,4 km/h (3 Bft)
12.05.2013 15:34 12,6 C 13,4 C 73 % 1015,1 hPa 0,0 l/m 0 min 0 min 1,4 UV-I 272 W/m 12,9 km/h (3 Bft)
12.05.2013 15:36 12,3 C 12,9 C 72 % 1015,1 hPa 0,0 l/m 0 min 0 min 0,8 UV-I 255 W/m 12,9 km/h (3 Bft)
12.05.2013 15:38 12,3 C 12,9 C 73 % 1015,0 hPa 0,0 l/m 0 min 0 min 0,9 UV-I 258 W/m 18,0 km/h (3 Bft)
12.05.2013 15:40 12,4 C 12,9 C 74 % 1015,0 hPa 0,0 l/m 0 min 2 min 0,9 UV-I 257 W/m 5,1 km/h (1 Bft)
12.05.2013 15:42 12,5 C 12,9 C 73 % 1015,1 hPa 0,0 l/m 0 min 0 min 0,8 UV-I 253 W/m 18,0 km/h (3 Bft)
12.05.2013 15:44 12,4 C 12,9 C 72 % 1015,0 hPa 0,0 l/m 0 min 0 min 0,7 UV-I 257 W/m 10,3 km/h (2 Bft)
12.05.2013 15:46 12,4 C 12,9 C 72 % 1015,0 hPa 0,0 l/m 0 min 0 min 1,2 UV-I 339 W/m 15,4 km/h (3 Bft)
12.05.2013 15:48 12,6 C 13,4 C 73 % 1015,1 hPa 0,0 l/m 2 min 0 min 2,9 UV-I 406 W/m 10,3 km/h (2 Bft)
12.05.2013 15:50 13,2 C 14,6 C 75 % 1015,0 hPa 0,0 l/m 2 min 0 min 2,5 UV-I 986 W/m 18,0 km/h (3 Bft)
12.05.2013 15:52 13,4 C 14,6 C 72 % 1015,1 hPa 0,0 l/m 0 min 0 min 1,0 UV-I 255 W/m 23,2 km/h (4 Bft)
12.05.2013 15:54 13,3 C 13,4 C 70 % 1015,1 hPa 0,0 l/m 0 min 0 min 0,6 UV-I 218 W/m 15,4 km/h (3 Bft)
12.05.2013 15:56 13,1 C 13,4 C 71 % 1015,2 hPa 0,0 l/m 0 min 0 min 0,8 UV-I 278 W/m 20,6 km/h (4 Bft)
12.05.2013 15:58 12,9 C 13,4 C 72 % 1015,1 hPa 0,0 l/m 0 min 0 min 0,9 UV-I 301 W/m 10,3 km/h (2 Bft)
12.05.2013 16:00 12,8 C 13,4 C 72 % 1015,0 hPa 0,0 l/m 0 min 0 min 0,8 UV-I 287 W/m 15,4 km/h (3 Bft)
12.05.2013 16:02 12,7 C 13,4 C 73 % 1015,0 hPa 0,0 l/m 0 min 0 min 0,8 UV-I 281 W/m 5,1 km/h (1 Bft)
12.05.2013 16:04 12,8 C 14,0 C 74 % 1015,1 hPa 0,0 l/m 0 min 0 min 1,0 UV-I 364 W/m 7,7 km/h (2 Bft)
12.05.2013 16:06 12,9 C 14,0 C 72 % 1015,1 hPa 0,0 l/m 0 min 0 min 1,7 UV-I 366 W/m 15,4 km/h (3 Bft)
12.05.2013 16:08 12,8 C 14,0 C 71 % 1015,0 hPa 0,0 l/m 0 min 0 min 1,6 UV-I 366 W/m 15,4 km/h (3 Bft)
12.05.2013 16:10 13,3 C 15,1 C 72 % 1015,0 hPa 0,0 l/m 2 min 0 min 2,6 UV-I 914 W/m 20,6 km/h (4 Bft)
12.05.2013 16:12 14,0 C 16,8 C 71 % 1015,0 hPa 0,0 l/m 2 min 0 min 2,6 UV-I 882 W/m 12,9 km/h (3 Bft)
12.05.2013 16:14 14,2 C 16,2 C 69 % 1015,0 hPa 0,0 l/m 2 min 0 min 1,4 UV-I 874 W/m 18,0 km/h (3 Bft)
12.05.2013 16:16 14,0 C 16,2 C 68 % 1015,0 hPa 0,0 l/m 2 min 0 min 1,0 UV-I 874 W/m 18,0 km/h (3 Bft)
12.05.2013 16:18 13,8 C 15,1 C 67 % 1015,0 hPa 0,0 l/m 0 min 0 min 1,2 UV-I 236 W/m 20,6 km/h (4 Bft)
12.05.2013 16:20 13,6 C 15,1 C 67 % 1014,9 hPa 0,0 l/m 2 min 0 min 1,2 UV-I 543 W/m 15,4 km/h (3 Bft)
12.05.2013 16:22 13,8 C 15,1 C 70 % 1015,0 hPa 0,0 l/m 2 min 0 min 1,3 UV-I 543 W/m 15,4 km/h (3 Bft)
12.05.2013 16:24 13,8 C 14,6 C 68 % 1014,9 hPa 0,0 l/m 0 min 0 min 0,0 UV-I 193 W/m 23,2 km/h (4 Bft)
12.05.2013 16:26 13,5 C 13,4 C 69 % 1015,0 hPa 0,0 l/m 0 min 0 min 0,0 UV-I 151 W/m 25,7 km/h (4 Bft)
12.05.2013 16:28 13,3 C 12,9 C 70 % 1015,2 hPa 0,0 l/m 0 min 0 min 0,0 UV-I 153 W/m 12,9 km/h (3 Bft)
12.05.2013 16:30 13,1 C 12,9 C 71 % 1015,0 hPa 0,0 l/m 0 min 0 min 0,0 UV-I 144 W/m 12,9 km/h (3 Bft)
12.05.2013 16:32 12,9 C 12,3 C 71 % 1015,0 hPa 0,0 l/m 0 min 0 min 0,0 UV-I 128 W/m 15,4 km/h (3 Bft)
12.05.2013 16:34 12,7 C 12,3 C 72 % 1015,0 hPa 0,0 l/m 0 min 0 min 0,0 UV-I 132 W/m 15,4 km/h (3 Bft)
12.05.2013 16:36 12,6 C 12,3 C 73 % 1015,2 hPa 0,0 l/m 0 min 0 min 0,0 UV-I 165 W/m 12,9 km/h (3 Bft)
12.05.2013 16:38 12,6 C 12,3 C 74 % 1015,1 hPa 0,0 l/m 0 min 0 min 0,9 UV-I 221 W/m 5,1 km/h (1 Bft)
12.05.2013 16:40 12,7 C 12,9 C 73 % 1015,1 hPa 0,0 l/m 0 min 0 min 1,6 UV-I 221 W/m 25,7 km/h (4 Bft)
12.05.2013 16:42 12,9 C 13,4 C 74 % 1015,1 hPa 0,0 l/m 2 min 0 min 1,0 UV-I 810 W/m 25,7 km/h (4 Bft)
12.05.2013 16:44 13,1 C 14,0 C 73 % 1015,1 hPa 0,0 l/m 2 min 0 min 1,1 UV-I 826 W/m 12,9 km/h (3 Bft)
12.05.2013 16:46 13,3 C 14,0 C 73 % 1015,1 hPa 0,0 l/m 0 min 0 min 0,8 UV-I 329 W/m 15,4 km/h (3 Bft)
12.05.2013 16:48 13,4 C 14,0 C 71 % 1015,0 hPa 0,0 l/m 0 min 0 min 0,8 UV-I 279 W/m 23,2 km/h (4 Bft)
12.05.2013 16:50 13,3 C 13,4 C 70 % 1015,1 hPa 0,0 l/m 0 min 0 min 0,6 UV-I 167 W/m 15,4 km/h (3 Bft)
12.05.2013 16:52 13,1 C 12,9 C 70 % 1015,2 hPa 0,0 l/m 0 min 0 min 0,0 UV-I 135 W/m 15,4 km/h (3 Bft)
12.05.2013 16:54 12,9 C 12,3 C 70 % 1015,1 hPa 0,0 l/m 0 min 0 min 0,0 UV-I 120 W/m 23,2 km/h (4 Bft)
12.05.2013 16:56 12,7 C 12,3 C 71 % 1015,2 hPa 0,0 l/m 0 min 0 min 0,0 UV-I 76 W/m 15,4 km/h (3 Bft)
12.05.2013 16:58 12,6 C 11,8 C 72 % 1015,3 hPa 0,0 l/m 0 min 2 min 0,0 UV-I 54 W/m 18,0 km/h (3 Bft)
12.05.2013 17:00 12,4 C 11,2 C 74 % 1015,4 hPa 0,0 l/m 0 min 2 min 0,0 UV-I 42 W/m 23,2 km/h (4 Bft)
12.05.2013 17:02 12,2 C 10,7 C 76 % 1015,5 hPa 0,0 l/m 0 min 2 min 0,0 UV-I 65 W/m 10,3 km/h (2 Bft)
12.05.2013 17:04 11,8 C 9,6 C 78 % 1015,7 hPa 0,0 l/m 0 min 2 min 0,0 UV-I 77 W/m 10,3 km/h (2 Bft)
12.05.2013 17:06 11,4 C 9,0 C 81 % 1015,7 hPa 0,0 l/m 0 min 2 min 0,0 UV-I 74 W/m 7,7 km/h (2 Bft)
12.05.2013 17:08 10,9 C 8,4 C 83 % 1015,8 hPa 0,2 l/m 0 min 2 min 0,0 UV-I 84 W/m 23,2 km/h (4 Bft)
12.05.2013 17:10 10,4 C 8,4 C 83 % 1015,8 hPa 0,0 l/m 0 min 2 min 0,0 UV-I 97 W/m 5,1 km/h (1 Bft)
12.05.2013 17:12 10,1 C 8,4 C 85 % 1015,7 hPa 0,2 l/m 0 min 2 min 0,0 UV-I 127 W/m 12,9 km/h (3 Bft)
12.05.2013 17:14 9,8 C 8,4 C 86 % 1015,7 hPa 0,0 l/m 0 min 2 min 0,0 UV-I 190 W/m 2,6 km/h (1 Bft)
12.05.2013 17:16 9,8 C 9,0 C 88 % 1015,7 hPa 0,0 l/m 0 min 0 min 0,0 UV-I 209 W/m 0,0 km/h (0 Bft)
12.05.2013 17:18 9,9 C 9,6 C 90 % 1015,7 hPa 0,0 l/m 0 min 0 min 0,0 UV-I 216 W/m 0,0 km/h (0 Bft)
12.05.2013 17:20 9,9 C 9,6 C 90 % 1015,6 hPa 0,0 l/m 0 min 0 min 0,0 UV-I 181 W/m 7,7 km/h (2 Bft)
12.05.2013 17:22 10,1 C 9,6 C 91 % 1015,6 hPa 0,0 l/m 0 min 2 min 0,0 UV-I 171 W/m 7,7 km/h (2 Bft)
12.05.2013 17:24 10,1 C 9,6 C 91 % 1015,7 hPa 0,0 l/m 0 min 2 min 0,0 UV-I 165 W/m 2,6 km/h (1 Bft)
12.05.2013 17:26 10,2 C 9,6 C 91 % 1015,7 hPa 0,0 l/m 0 min 0 min 0,0 UV-I 158 W/m 0,0 km/h (0 Bft)
12.05.2013 17:28 10,3 C 9,6 C 91 % 1015,6 hPa 0,0 l/m 0 min 0 min 0,0 UV-I 148 W/m 12,9 km/h (3 Bft)
12.05.2013 17:30 10,3 C 9,6 C 90 % 1015,7 hPa 0,0 l/m 0 min 0 min 0,0 UV-I 139 W/m 5,1 km/h (1 Bft)
12.05.2013 17:32 10,4 C 9,6 C 90 % 1015,6 hPa 0,0 l/m 0 min 0 min 0,0 UV-I 141 W/m 0,0 km/h (0 Bft)
12.05.2013 17:34 10,3 C 9,6 C 90 % 1015,7 hPa 0,0 l/m 0 min 0 min 0,0 UV-I 149 W/m 5,1 km/h (1 Bft)
12.05.2013 17:36 10,3 C 9,6 C 89 % 1015,7 hPa 0,0 l/m 0 min 0 min 0,0 UV-I 156 W/m 2,6 km/h (1 Bft)
12.05.2013 17:38 10,3 C 9,0 C 88 % 1015,7 hPa 0,0 l/m 0 min 2 min 0,0 UV-I 160 W/m 7,7 km/h (2 Bft)
12.05.2013 17:40 10,4 C 9,6 C 87 % 1015,6 hPa 0,0 l/m 0 min 0 min 0,0 UV-I 167 W/m 0,0 km/h (0 Bft)
12.05.2013 17:42 10,6 C 9,6 C 87 % 1015,6 hPa 0,0 l/m 0 min 0 min 0,0 UV-I 171 W/m 0,0 km/h (0 Bft)
12.05.2013 17:44 10,6 C 9,6 C 88 % 1015,6 hPa 0,0 l/m 0 min 0 min 0,0 UV-I 167 W/m 0,0 km/h (0 Bft)
12.05.2013 17:46 10,7 C 9,6 C 86 % 1015,7 hPa 0,0 l/m 0 min 0 min 0,0 UV-I 179 W/m 12,9 km/h (3 Bft)
12.05.2013 17:48 10,8 C 9,6 C 86 % 1015,6 hPa 0,0 l/m 0 min 0 min 0,0 UV-I 193 W/m 7,7 km/h (2 Bft)
12.05.2013 17:50 10,8 C 9,6 C 86 % 1015,7 hPa 0,0 l/m 0 min 0 min 0,0 UV-I 190 W/m 7,7 km/h (2 Bft)
12.05.2013 17:52 10,9 C 10,1 C 86 % 1015,7 hPa 0,0 l/m 0 min 0 min 0,0 UV-I 195 W/m 12,9 km/h (3 Bft)
12.05.2013 17:54 10,9 C 9,6 C 85 % 1015,7 hPa 0,0 l/m 0 min 0 min 0,5 UV-I 200 W/m 10,3 km/h (2 Bft)
12.05.2013 17:56 11,2 C 10,1 C 86 % 1015,7 hPa 0,0 l/m 2 min 0 min 0,5 UV-I 482 W/m 0,0 km/h (0 Bft)
12.05.2013 17:58 11,7 C 10,7 C 87 % 1015,7 hPa 0,0 l/m 2 min 0 min 0,5 UV-I 497 W/m 10,3 km/h (2 Bft)
12.05.2013 18:00 11,9 C 10,7 C 85 % 1015,6 hPa 0,0 l/m 2 min 0 min 0,5 UV-I 403 W/m 7,7 km/h (2 Bft)
12.05.2013 18:02 12,1 C 10,7 C 84 % 1015,6 hPa 0,0 l/m 2 min 0 min 0,5 UV-I 302 W/m 18,0 km/h (3 Bft)
12.05.2013 18:04 12,2 C 10,7 C 84 % 1015,6 hPa 0,0 l/m 2 min 0 min 0,5 UV-I 378 W/m 10,3 km/h (2 Bft)
12.05.2013 18:06 12,2 C 10,1 C 82 % 1015,6 hPa 0,0 l/m 2 min 0 min 0,0 UV-I 380 W/m 15,4 km/h (3 Bft)
12.05.2013 18:08 12,2 C 10,1 C 82 % 1015,5 hPa 0,0 l/m 0 min 0 min 0,0 UV-I 134 W/m 10,3 km/h (2 Bft)
12.05.2013 18:10 12,1 C 10,1 C 82 % 1015,6 hPa 0,0 l/m 0 min 0 min 0,0 UV-I 109 W/m 2,6 km/h (1 Bft)
12.05.2013 18:12 12,1 C 10,1 C 82 % 1015,6 hPa 0,0 l/m 0 min 0 min 0,0 UV-I 70 W/m 7,7 km/h (2 Bft)
12.05.2013 18:14 11,9 C 10,1 C 80 % 1015,5 hPa 0,0 l/m 0 min 0 min 0,0 UV-I 70 W/m 15,4 km/h (3 Bft)
12.05.2013 18:16 11,8 C 9,6 C 80 % 1015,6 hPa 0,0 l/m 0 min 0 min 0,0 UV-I 62 W/m 12,9 km/h (3 Bft)
12.05.2013 18:18 11,7 C 9,6 C 81 % 1015,6 hPa 0,0 l/m 0 min 0 min 0,0 UV-I 53 W/m 5,1 km/h (1 Bft)
12.05.2013 18:20 11,7 C 9,6 C 82 % 1015,7 hPa 0,0 l/m 0 min 0 min 0,0 UV-I 49 W/m 10,3 km/h (2 Bft)
12.05.2013 18:22 11,6 C 9,6 C 82 % 1015,7 hPa 0,0 l/m 0 min 2 min 0,0 UV-I 49 W/m 2,6 km/h (1 Bft)
12.05.2013 18:24 11,5 C 9,6 C 82 % 1015,7 hPa 0,0 l/m 0 min 2 min 0,0 UV-I 53 W/m 7,7 km/h (2 Bft)
12.05.2013 18:26 11,4 C 9,6 C 82 % 1015,8 hPa 0,0 l/m 0 min 2 min 0,0 UV-I 65 W/m 7,7 km/h (2 Bft)
12.05.2013 18:28 11,4 C 9,6 C 83 % 1015,8 hPa 0,0 l/m 0 min 2 min 0,0 UV-I 76 W/m 2,6 km/h (1 Bft)
12.05.2013 18:30 11,3 C 9,6 C 84 % 1015,8 hPa 0,0 l/m 0 min 2 min 0,0 UV-I 102 W/m 18,0 km/h (3 Bft)
12.05.2013 18:32 11,2 C 9,6 C 84 % 1015,8 hPa 0,0 l/m 0 min 0 min 0,0 UV-I 148 W/m 7,7 km/h (2 Bft)
12.05.2013 18:34 11,3 C 9,6 C 84 % 1015,8 hPa 0,0 l/m 0 min 0 min 0,0 UV-I 134 W/m 2,6 km/h (1 Bft)
12.05.2013 18:36 11,4 C 9,6 C 84 % 1015,8 hPa 0,0 l/m 0 min 0 min 0,0 UV-I 141 W/m 12,9 km/h (3 Bft)
12.05.2013 18:38 11,4 C 10,1 C 84 % 1015,8 hPa 0,0 l/m 0 min 0 min 0,0 UV-I 146 W/m 10,3 km/h (2 Bft)
12.05.2013 18:40 11,4 C 10,1 C 83 % 1015,8 hPa 0,0 l/m 0 min 0 min 0,0 UV-I 146 W/m 0,0 km/h (0 Bft)
12.05.2013 18:42 11,5 C 10,1 C 83 % 1015,8 hPa 0,0 l/m 0 min 0 min 0,0 UV-I 118 W/m 5,1 km/h (1 Bft)
12.05.2013 18:44 11,5 C 10,1 C 83 % 1015,8 hPa 0,0 l/m 0 min 0 min 0,0 UV-I 107 W/m 0,0 km/h (0 Bft)
12.05.2013 18:46 11,5 C 10,1 C 83 % 1015,8 hPa 0,0 l/m 0 min 0 min 0,0 UV-I 111 W/m 0,0 km/h (0 Bft)
12.05.2013 18:48 11,5 C 10,1 C 82 % 1015,8 hPa 0,0 l/m 0 min 0 min 0,0 UV-I 113 W/m 10,3 km/h (2 Bft)
12.05.2013 18:50 11,4 C 10,1 C 82 % 1015,8 hPa 0,0 l/m 0 min 0 min 0,0 UV-I 121 W/m 7,7 km/h (2 Bft)
12.05.2013 18:52 11,5 C 10,7 C 82 % 1015,8 hPa 0,0 l/m 0 min 0 min 0,0 UV-I 141 W/m 7,7 km/h (2 Bft)
12.05.2013 18:54 11,5 C 10,7 C 81 % 1015,9 hPa 0,0 l/m 0 min 0 min 0,0 UV-I 151 W/m 12,9 km/h (3 Bft)
12.05.2013 18:56 11,5 C 10,7 C 81 % 1015,8 hPa 0,0 l/m 0 min 0 min 0,0 UV-I 153 W/m 15,4 km/h (3 Bft)
12.05.2013 18:58 11,6 C 10,7 C 81 % 1015,8 hPa 0,0 l/m 0 min 0 min 0,0 UV-I 141 W/m 15,4 km/h (3 Bft)
12.05.2013 19:00 11,6 C 10,7 C 81 % 1015,9 hPa 0,0 l/m 0 min 0 min 0,0 UV-I 102 W/m 7,7 km/h (2 Bft)
12.05.2013 19:02 11,6 C 10,7 C 80 % 1015,9 hPa 0,0 l/m 0 min 0 min 0,0 UV-I 90 W/m 12,9 km/h (3 Bft)
12.05.2013 19:04 11,6 C 10,7 C 80 % 1015,9 hPa 0,0 l/m 0 min 0 min 0,0 UV-I 98 W/m 23,2 km/h (4 Bft)
12.05.2013 19:06 11,6 C 10,7 C 80 % 1016,0 hPa 0,0 l/m 0 min 0 min 0,0 UV-I 83 W/m 18,0 km/h (3 Bft)
12.05.2013 19:08 11,6 C 10,7 C 79 % 1015,9 hPa 0,0 l/m 0 min 0 min 0,0 UV-I 77 W/m 20,6 km/h (4 Bft)
12.05.2013 19:10 11,5 C 10,7 C 79 % 1016,0 hPa 0,0 l/m 0 min 0 min 0,0 UV-I 65 W/m 15,4 km/h (3 Bft)
12.05.2013 19:12 11,5 C 10,7 C 79 % 1016,0 hPa 0,0 l/m 0 min 0 min 0,0 UV-I 69 W/m 0,0 km/h (0 Bft)
12.05.2013 19:14 11,5 C 10,7 C 80 % 1016,0 hPa 0,0 l/m 0 min 0 min 0,0 UV-I 79 W/m 10,3 km/h (2 Bft)
12.05.2013 19:16 11,4 C 10,7 C 80 % 1016,0 hPa 0,0 l/m 0 min 0 min 0,0 UV-I 79 W/m 15,4 km/h (3 Bft)
12.05.2013 19:18 11,4 C 10,7 C 80 % 1016,0 hPa 0,0 l/m 0 min 0 min 0,0 UV-I 70 W/m 15,4 km/h (3 Bft)
12.05.2013 19:20 11,4 C 10,1 C 80 % 1016,0 hPa 0,0 l/m 0 min 0 min 0,0 UV-I 56 W/m 7,7 km/h (2 Bft)
12.05.2013 19:22 11,3 C 10,1 C 79 % 1016,2 hPa 0,0 l/m 0 min 0 min 0,0 UV-I 56 W/m 12,9 km/h (3 Bft)
12.05.2013 19:24 11,3 C 10,1 C 79 % 1016,2 hPa 0,0 l/m 0 min 0 min 0,0 UV-I 60 W/m 18,0 km/h (3 Bft)
12.05.2013 19:26 11,3 C 10,1 C 80 % 1016,2 hPa 0,0 l/m 0 min 0 min 0,0 UV-I 54 W/m 10,3 km/h (2 Bft)
12.05.2013 19:28 11,3 C 10,1 C 80 % 1016,3 hPa 0,0 l/m 0 min 0 min 0,0 UV-I 47 W/m 10,3 km/h (2 Bft)
12.05.2013 19:30 11,3 C 10,1 C 80 % 1016,2 hPa 0,0 l/m 0 min 0 min 0,0 UV-I 46 W/m 18,0 km/h (3 Bft)
12.05.2013 19:32 11,3 C 10,1 C 80 % 1016,2 hPa 0,0 l/m 0 min 0 min 0,0 UV-I 40 W/m 15,4 km/h (3 Bft)
12.05.2013 19:34 11,2 C 10,1 C 80 % 1016,3 hPa 0,0 l/m 0 min 0 min 0,0 UV-I 37 W/m 10,3 km/h (2 Bft)
12.05.2013 19:36 11,2 C 10,1 C 80 % 1016,3 hPa 0,0 l/m 0 min 0 min 0,0 UV-I 33 W/m 2,6 km/h (1 Bft)
12.05.2013 19:38 11,2 C 10,1 C 80 % 1016,3 hPa 0,0 l/m 0 min 0 min 0,0 UV-I 32 W/m 5,1 km/h (1 Bft)
12.05.2013 19:40 11,2 C 10,1 C 80 % 1016,3 hPa 0,0 l/m 0 min 0 min 0,0 UV-I 35 W/m 15,4 km/h (3 Bft)
12.05.2013 19:42 11,2 C 10,1 C 80 % 1016,2 hPa 0,0 l/m 0 min 0 min 0,0 UV-I 42 W/m 12,9 km/h (3 Bft)
12.05.2013 19:44 11,2 C 10,1 C 80 % 1016,2 hPa 0,0 l/m 0 min 0 min 0,0 UV-I 49 W/m 2,6 km/h (1 Bft)
12.05.2013 19:46 11,2 C 10,1 C 80 % 1016,3 hPa 0,0 l/m 0 min 0 min 0,0 UV-I 60 W/m 5,1 km/h (1 Bft)
12.05.2013 19:48 11,2 C 10,1 C 81 % 1016,3 hPa 0,0 l/m 0 min 0 min 0,0 UV-I 62 W/m 12,9 km/h (3 Bft)
12.05.2013 19:50 11,2 C 10,1 C 81 % 1016,3 hPa 0,0 l/m 0 min 0 min 0,0 UV-I 63 W/m 12,9 km/h (3 Bft)
12.05.2013 19:52 11,2 C 10,1 C 81 % 1016,3 hPa 0,0 l/m 0 min 0 min 0,0 UV-I 62 W/m 5,1 km/h (1 Bft)
12.05.2013 19:54 11,2 C 10,1 C 81 % 1016,2 hPa 0,0 l/m 0 min 0 min 0,0 UV-I 62 W/m 7,7 km/h (2 Bft)
12.05.2013 19:56 11,2 C 10,1 C 81 % 1016,3 hPa 0,0 l/m 0 min 0 min 0,0 UV-I 67 W/m 2,6 km/h (1 Bft)
12.05.2013 19:58 11,2 C 10,7 C 81 % 1016,2 hPa 0,0 l/m 0 min 0 min 0,0 UV-I 58 W/m 7,7 km/h (2 Bft)
12.05.2013 20:00 11,2 C 10,1 C 81 % 1016,3 hPa 0,0 l/m 0 min 0 min 0,0 UV-I 42 W/m 15,4 km/h (3 Bft)
12.05.2013 20:02 11,2 C 10,1 C 80 % 1016,3 hPa 0,0 l/m 0 min 0 min 0,0 UV-I 30 W/m 12,9 km/h (3 Bft)
12.05.2013 20:04 11,2 C 10,1 C 80 % 1016,3 hPa 0,0 l/m 0 min 0 min 0,0 UV-I 21 W/m 15,4 km/h (3 Bft)
12.05.2013 20:06 11,2 C 9,6 C 79 % 1016,3 hPa 0,0 l/m 0 min 0 min 0,0 UV-I 21 W/m 10,3 km/h (2 Bft)
12.05.2013 20:08 11,2 C 9,6 C 79 % 1016,3 hPa 0,0 l/m 0 min 0 min 0,0 UV-I 21 W/m 2,6 km/h (1 Bft)
12.05.2013 20:10 11,1 C 9,6 C 79 % 1016,4 hPa 0,0 l/m 0 min 0 min 0,0 UV-I 21 W/m 2,6 km/h (1 Bft)
12.05.2013 20:12 11,1 C 9,6 C 79 % 1016,3 hPa 0,0 l/m 0 min 0 min 0,0 UV-I 21 W/m 18,0 km/h (3 Bft)
12.05.2013 20:14 11,1 C 9,6 C 79 % 1016,4 hPa 0,0 l/m 0 min 0 min 0,0 UV-I 21 W/m 10,3 km/h (2 Bft)
12.05.2013 20:16 11,1 C 9,6 C 79 % 1016,3 hPa 0,0 l/m 0 min 0 min 0,0 UV-I 19 W/m 7,7 km/h (2 Bft)
12.05.2013 20:18 11,1 C 9,6 C 79 % 1016,4 hPa 0,0 l/m 0 min 0 min 0,0 UV-I 19 W/m 10,3 km/h (2 Bft)
12.05.2013 20:20 11,0 C 9,6 C 79 % 1016,4 hPa 0,0 l/m 0 min 0 min 0,0 UV-I 18 W/m 7,7 km/h (2 Bft)
12.05.2013 20:22 10,9 C 9,6 C 79 % 1016,3 hPa 0,0 l/m 0 min 0 min 0,0 UV-I 16 W/m 10,3 km/h (2 Bft)
12.05.2013 20:24 10,9 C 9,0 C 79 % 1016,4 hPa 0,0 l/m 0 min 0 min 0,0 UV-I 16 W/m 2,6 km/h (1 Bft)
12.05.2013 20:26 10,9 C 9,0 C 79 % 1016,4 hPa 0,0 l/m 0 min 0 min 0,0 UV-I 16 W/m 0,0 km/h (0 Bft)
12.05.2013 20:28 10,9 C 9,0 C 79 % 1016,5 hPa 0,0 l/m 0 min 0 min 0,0 UV-I 16 W/m 7,7 km/h (2 Bft)
12.05.2013 20:30 10,8 C 9,0 C 80 % 1016,5 hPa 0,0 l/m 0 min 0 min 0,0 UV-I 14 W/m 5,1 km/h (1 Bft)
12.05.2013 20:32 10,8 C 9,0 C 79 % 1016,5 hPa 0,0 l/m 0 min 0 min 0,0 UV-I 12 W/m 7,7 km/h (2 Bft)
12.05.2013 20:34 10,8 C 9,0 C 79 % 1016,5 hPa 0,0 l/m 0 min 0 min 0,0 UV-I 11 W/m 0,0 km/h (0 Bft)
12.05.2013 20:36 10,7 C 9,0 C 80 % 1016,4 hPa 0,0 l/m 0 min 0 min 0,0 UV-I 11 W/m 0,0 km/h (0 Bft)
12.05.2013 20:38 10,7 C 9,0 C 80 % 1016,4 hPa 0,0 l/m 0 min 0 min 0,0 UV-I 11 W/m 5,1 km/h (1 Bft)
12.05.2013 20:40 10,7 C 9,0 C 80 % 1016,5 hPa 0,0 l/m 0 min 0 min 0,0 UV-I 11 W/m 2,6 km/h (1 Bft)
12.05.2013 20:42 10,6 C 9,0 C 80 % 1016,5 hPa 0,0 l/m 0 min 0 min 0,0 UV-I 11 W/m 0,0 km/h (0 Bft)
12.05.2013 20:44 10,6 C 9,0 C 80 % 1016,5 hPa 0,0 l/m 0 min 0 min 0,0 UV-I 11 W/m 0,0 km/h (0 Bft)
12.05.2013 20:46 10,6 C 9,0 C 80 % 1016,5 hPa 0,0 l/m 0 min 0 min 0,0 UV-I 12 W/m 5,1 km/h (1 Bft)
12.05.2013 20:48 10,6 C 9,0 C 80 % 1016,5 hPa 0,0 l/m 0 min 0 min 0,0 UV-I 12 W/m 0,0 km/h (0 Bft)
12.05.2013 20:50 10,5 C 9,0 C 80 % 1016,5 hPa 0,0 l/m 0 min 0 min 0,0 UV-I 11 W/m 0,0 km/h (0 Bft)
12.05.2013 20:52 10,5 C 9,0 C 80 % 1016,5 hPa 0,0 l/m 0 min 0 min 0,0 UV-I 11 W/m 0,0 km/h (0 Bft)
12.05.2013 20:54 10,5 C 9,0 C 80 % 1016,4 hPa 0,0 l/m 0 min 0 min 0,0 UV-I 9 W/m 0,0 km/h (0 Bft)
12.05.2013 20:56 10,4 C 9,0 C 80 % 1016,4 hPa 0,0 l/m 0 min 0 min 0,0 UV-I 9 W/m 0,0 km/h (0 Bft)
12.05.2013 20:58 10,4 C 9,0 C 80 % 1016,5 hPa 0,0 l/m 0 min 0 min 0,0 UV-I 7 W/m 0,0 km/h (0 Bft)
12.05.2013 21:00 10,4 C 9,0 C 80 % 1016,5 hPa 0,0 l/m 0 min 0 min 0,0 UV-I 7 W/m 0,0 km/h (0 Bft)
12.05.2013 21:02 10,4 C 9,0 C 81 % 1016,4 hPa 0,0 l/m 0 min 0 min 0,0 UV-I 5 W/m 0,0 km/h (0 Bft)
12.05.2013 21:04 10,4 C 9,0 C 81 % 1016,5 hPa 0,0 l/m 0 min 0 min 0,0 UV-I 5 W/m 0,0 km/h (0 Bft)
12.05.2013 21:06 10,4 C 9,0 C 81 % 1016,5 hPa 0,0 l/m 0 min 0 min 0,0 UV-I 0 W/m 0,0 km/h (0 Bft)
12.05.2013 21:08 10,3 C 9,0 C 81 % 1016,5 hPa 0,0 l/m 0 min 0 min 0,0 UV-I 0 W/m 0,0 km/h (0 Bft)
12.05.2013 21:10 10,3 C 9,0 C 81 % 1016,4 hPa 0,0 l/m 0 min 0 min 0,0 UV-I 0 W/m 0,0 km/h (0 Bft)
12.05.2013 21:12 10,3 C 9,0 C 81 % 1016,5 hPa 0,0 l/m 0 min 0 min 0,0 UV-I 0 W/m 0,0 km/h (0 Bft)
12.05.2013 21:14 10,3 C 9,0 C 81 % 1016,5 hPa 0,0 l/m 0 min 0 min 0,0 UV-I 0 W/m 0,0 km/h (0 Bft)
12.05.2013 21:16 10,3 C 9,0 C 81 % 1016,6 hPa 0,0 l/m 0 min 0 min 0,0 UV-I 0 W/m 0,0 km/h (0 Bft)
12.05.2013 21:18 10,3 C 9,0 C 82 % 1016,5 hPa 0,0 l/m 0 min 0 min 0,0 UV-I 0 W/m 0,0 km/h (0 Bft)
12.05.2013 21:20 10,3 C 9,0 C 81 % 1016,6 hPa 0,0 l/m 0 min 0 min 0,0 UV-I 0 W/m 0,0 km/h (0 Bft)
12.05.2013 21:22 10,3 C 9,0 C 81 % 1016,7 hPa 0,0 l/m 0 min 0 min 0,0 UV-I 0 W/m 0,0 km/h (0 Bft)
12.05.2013 21:24 10,3 C 9,0 C 81 % 1016,6 hPa 0,0 l/m 0 min 0 min 0,0 UV-I 0 W/m 0,0 km/h (0 Bft)
12.05.2013 21:26 10,3 C 9,0 C 81 % 1016,6 hPa 0,0 l/m 0 min 0 min 0,0 UV-I 0 W/m 0,0 km/h (0 Bft)
12.05.2013 21:28 10,3 C 9,0 C 81 % 1016,6 hPa 0,0 l/m 0 min 0 min 0,0 UV-I 0 W/m 0,0 km/h (0 Bft)
12.05.2013 21:30 10,3 C 9,0 C 82 % 1016,6 hPa 0,0 l/m 0 min 0 min 0,0 UV-I 0 W/m 0,0 km/h (0 Bft)
12.05.2013 21:32 10,2 C 9,0 C 82 % 1016,7 hPa 0,0 l/m 0 min 0 min 0,0 UV-I 0 W/m 0,0 km/h (0 Bft)
12.05.2013 21:34 10,2 C 9,0 C 82 % 1016,7 hPa 0,0 l/m 0 min 0 min 0,0 UV-I 0 W/m 2,6 km/h (1 Bft)
12.05.2013 21:36 10,2 C 9,0 C 82 % 1016,7 hPa 0,0 l/m 0 min 0 min 0,0 UV-I 0 W/m 0,0 km/h (0 Bft)
12.05.2013 21:38 10,2 C 9,0 C 82 % 1016,7 hPa 0,0 l/m 0 min 0 min 0,0 UV-I 0 W/m 0,0 km/h (0 Bft)
12.05.2013 21:40 10,2 C 9,0 C 82 % 1016,7 hPa 0,0 l/m 0 min 0 min 0,0 UV-I 0 W/m 0,0 km/h (0 Bft)
12.05.2013 21:42 10,2 C 9,0 C 82 % 1016,7 hPa 0,0 l/m 0 min 0 min 0,0 UV-I 0 W/m 0,0 km/h (0 Bft)
12.05.2013 21:44 10,2 C 9,0 C 82 % 1016,7 hPa 0,0 l/m 0 min 0 min 0,0 UV-I 0 W/m 0,0 km/h (0 Bft)
12.05.2013 21:46 10,2 C 9,0 C 82 % 1016,7 hPa 0,0 l/m 0 min 0 min 0,0 UV-I 0 W/m 0,0 km/h (0 Bft)
12.05.2013 21:48 10,2 C 9,0 C 82 % 1016,7 hPa 0,0 l/m 0 min 0 min 0,0 UV-I 0 W/m 0,0 km/h (0 Bft)
12.05.2013 21:50 10,2 C 9,0 C 82 % 1016,7 hPa 0,0 l/m 0 min 0 min 0,0 UV-I 0 W/m 0,0 km/h (0 Bft)
12.05.2013 21:52 10,2 C 9,0 C 82 % 1016,7 hPa 0,0 l/m 0 min 0 min 0,0 UV-I 0 W/m 0,0 km/h (0 Bft)
12.05.2013 21:54 10,2 C 9,0 C 83 % 1016,7 hPa 0,0 l/m 0 min 0 min 0,0 UV-I 0 W/m 0,0 km/h (0 Bft)
12.05.2013 21:56 10,2 C 9,0 C 83 % 1016,8 hPa 0,0 l/m 0 min 0 min 0,0 UV-I 0 W/m 0,0 km/h (0 Bft)
12.05.2013 21:58 10,2 C 9,0 C 83 % 1016,7 hPa 0,0 l/m 0 min 0 min 0,0 UV-I 0 W/m 0,0 km/h (0 Bft)
12.05.2013 22:00 10,2 C 9,0 C 83 % 1016,8 hPa 0,0 l/m 0 min 0 min 0,0 UV-I 0 W/m 2,6 km/h (1 Bft)
12.05.2013 22:02 10,2 C 9,0 C 83 % 1016,7 hPa 0,0 l/m 0 min 0 min 0,0 UV-I 0 W/m 0,0 km/h (0 Bft)
12.05.2013 22:04 10,1 C 9,0 C 83 % 1016,7 hPa 0,0 l/m 0 min 0 min 0,0 UV-I 0 W/m 0,0 km/h (0 Bft)
12.05.2013 22:06 10,1 C 9,0 C 83 % 1016,8 hPa 0,0 l/m 0 min 0 min 0,0 UV-I 0 W/m 0,0 km/h (0 Bft)
12.05.2013 22:08 10,1 C 9,0 C 83 % 1016,8 hPa 0,0 l/m 0 min 0 min 0,0 UV-I 0 W/m 0,0 km/h (0 Bft)
12.05.2013 22:10 10,1 C 9,0 C 83 % 1016,7 hPa 0,0 l/m 0 min 0 min 0,0 UV-I 0 W/m 0,0 km/h (0 Bft)
12.05.2013 22:12 10,1 C 9,0 C 83 % 1016,8 hPa 0,0 l/m 0 min 0 min 0,0 UV-I 0 W/m 0,0 km/h (0 Bft)
12.05.2013 22:14 10,1 C 9,0 C 83 % 1016,7 hPa 0,0 l/m 0 min 0 min 0,0 UV-I 0 W/m 5,1 km/h (1 Bft)
12.05.2013 22:16 10,1 C 9,0 C 83 % 1016,7 hPa 0,0 l/m 0 min 0 min 0,0 UV-I 0 W/m 0,0 km/h (0 Bft)
12.05.2013 22:18 10,1 C 9,0 C 83 % 1016,7 hPa 0,0 l/m 0 min 0 min 0,0 UV-I 0 W/m 0,0 km/h (0 Bft)
12.05.2013 22:20 10,1 C 9,0 C 83 % 1016,6 hPa 0,0 l/m 0 min 0 min 0,0 UV-I 0 W/m 0,0 km/h (0 Bft)
12.05.2013 22:22 10,1 C 9,0 C 83 % 1016,7 hPa 0,0 l/m 0 min 0 min 0,0 UV-I 0 W/m 7,7 km/h (2 Bft)
12.05.2013 22:24 10,1 C 9,0 C 83 % 1016,7 hPa 0,0 l/m 0 min 0 min 0,0 UV-I 0 W/m 10,3 km/h (2 Bft)
12.05.2013 22:26 10,1 C 9,0 C 83 % 1016,7 hPa 0,0 l/m 0 min 0 min 0,0 UV-I 0 W/m 5,1 km/h (1 Bft)
12.05.2013 22:28 10,1 C 9,0 C 83 % 1016,7 hPa 0,0 l/m 0 min 0 min 0,0 UV-I 0 W/m 2,6 km/h (1 Bft)
12.05.2013 22:30 10,1 C 9,0 C 83 % 1016,7 hPa 0,0 l/m 0 min 0 min 0,0 UV-I 0 W/m 0,0 km/h (0 Bft)
12.05.2013 22:32 10,1 C 8,4 C 83 % 1016,7 hPa 0,0 l/m 0 min 0 min 0,0 UV-I 0 W/m 0,0 km/h (0 Bft)
12.05.2013 22:34 10,1 C 8,4 C 83 % 1016,7 hPa 0,0 l/m 0 min 0 min 0,0 UV-I 0 W/m 0,0 km/h (0 Bft)
12.05.2013 22:36 10,1 C 9,0 C 83 % 1016,7 hPa 0,0 l/m 0 min 0 min 0,0 UV-I 0 W/m 0,0 km/h (0 Bft)
12.05.2013 22:38 10,1 C 8,4 C 82 % 1016,7 hPa 0,0 l/m 0 min 0 min 0,0 UV-I 0 W/m 0,0 km/h (0 Bft)
12.05.2013 22:40 10,1 C 8,4 C 82 % 1016,7 hPa 0,0 l/m 0 min 0 min 0,0 UV-I 0 W/m 0,0 km/h (0 Bft)
12.05.2013 22:42 10,1 C 8,4 C 82 % 1016,7 hPa 0,0 l/m 0 min 0 min 0,0 UV-I 0 W/m 0,0 km/h (0 Bft)
12.05.2013 22:44 10,0 C 8,4 C 82 % 1016,7 hPa 0,0 l/m 0 min 0 min 0,0 UV-I 0 W/m 0,0 km/h (0 Bft)
12.05.2013 22:46 10,0 C 8,4 C 82 % 1016,7 hPa 0,0 l/m 0 min 0 min 0,0 UV-I 0 W/m 0,0 km/h (0 Bft)
12.05.2013 22:48 10,0 C 8,4 C 82 % 1016,7 hPa 0,0 l/m 0 min 0 min 0,0 UV-I 0 W/m 0,0 km/h (0 Bft)
12.05.2013 22:50 10,0 C 8,4 C 82 % 1016,7 hPa 0,0 l/m 0 min 0 min 0,0 UV-I 0 W/m 0,0 km/h (0 Bft)
12.05.2013 22:52 10,0 C 8,4 C 82 % 1016,7 hPa 0,0 l/m 0 min 0 min 0,0 UV-I 0 W/m 0,0 km/h (0 Bft)
12.05.2013 22:54 10,0 C 8,4 C 82 % 1016,6 hPa 0,0 l/m 0 min 0 min 0,0 UV-I 0 W/m 15,4 km/h (3 Bft)
12.05.2013 22:56 9,9 C 8,4 C 82 % 1016,7 hPa 0,0 l/m 0 min 0 min 0,0 UV-I 0 W/m 0,0 km/h (0 Bft)
12.05.2013 22:58 9,9 C 8,4 C 82 % 1016,7 hPa 0,0 l/m 0 min 0 min 0,0 UV-I 0 W/m 0,0 km/h (0 Bft)
12.05.2013 23:00 9,9 C 8,4 C 82 % 1016,7 hPa 0,0 l/m 0 min 0 min 0,0 UV-I 0 W/m 0,0 km/h (0 Bft)
12.05.2013 23:02 9,9 C 8,4 C 82 % 1016,7 hPa 0,0 l/m 0 min 0 min 0,0 UV-I 0 W/m 0,0 km/h (0 Bft)
12.05.2013 23:04 9,9 C 8,4 C 82 % 1016,7 hPa 0,0 l/m 0 min 0 min 0,0 UV-I 0 W/m 0,0 km/h (0 Bft)
12.05.2013 23:06 9,9 C 8,4 C 82 % 1016,7 hPa 0,0 l/m 0 min 0 min 0,0 UV-I 0 W/m 0,0 km/h (0 Bft)
12.05.2013 23:08 9,9 C 8,4 C 82 % 1016,6 hPa 0,0 l/m 0 min 0 min 0,0 UV-I 0 W/m 0,0 km/h (0 Bft)
12.05.2013 23:10 9,9 C 8,4 C 82 % 1016,6 hPa 0,0 l/m 0 min 0 min 0,0 UV-I 0 W/m 0,0 km/h (0 Bft)
12.05.2013 23:12 9,9 C 8,4 C 82 % 1016,5 hPa 0,0 l/m 0 min 0 min 0,0 UV-I 0 W/m 0,0 km/h (0 Bft)
12.05.2013 23:14 9,9 C 8,4 C 82 % 1016,7 hPa 0,0 l/m 0 min 0 min 0,0 UV-I 0 W/m 0,0 km/h (0 Bft)
12.05.2013 23:16 9,9 C 8,4 C 82 % 1016,6 hPa 0,0 l/m 0 min 0 min 0,0 UV-I 0 W/m 7,7 km/h (2 Bft)
12.05.2013 23:18 9,9 C 8,4 C 82 % 1016,6 hPa 0,0 l/m 0 min 0 min 0,0 UV-I 0 W/m 0,0 km/h (0 Bft)
12.05.2013 23:20 9,9 C 8,4 C 82 % 1016,6 hPa 0,0 l/m 0 min 0 min 0,0 UV-I 0 W/m 0,0 km/h (0 Bft)
12.05.2013 23:22 9,9 C 8,4 C 82 % 1016,5 hPa 0,0 l/m 0 min 0 min 0,0 UV-I 0 W/m 7,7 km/h (2 Bft)
12.05.2013 23:24 9,9 C 8,4 C 82 % 1016,5 hPa 0,0 l/m 0 min 0 min 0,0 UV-I 0 W/m 0,0 km/h (0 Bft)
12.05.2013 23:26 9,9 C 8,4 C 81 % 1016,5 hPa 0,0 l/m 0 min 0 min 0,0 UV-I 0 W/m 12,9 km/h (3 Bft)
12.05.2013 23:28 9,8 C 8,4 C 81 % 1016,4 hPa 0,0 l/m 0 min 0 min 0,0 UV-I 0 W/m 0,0 km/h (0 Bft)
12.05.2013 23:30 9,8 C 8,4 C 81 % 1016,4 hPa 0,0 l/m 0 min 0 min 0,0 UV-I 0 W/m 0,0 km/h (0 Bft)
12.05.2013 23:32 9,8 C 8,4 C 81 % 1016,4 hPa 0,0 l/m 0 min 0 min 0,0 UV-I 0 W/m 0,0 km/h (0 Bft)
12.05.2013 23:34 9,8 C 8,4 C 81 % 1016,5 hPa 0,0 l/m 0 min 0 min 0,0 UV-I 0 W/m 2,6 km/h (1 Bft)
12.05.2013 23:36 9,8 C 8,4 C 81 % 1016,5 hPa 0,0 l/m 0 min 0 min 0,0 UV-I 0 W/m 0,0 km/h (0 Bft)
12.05.2013 23:38 9,8 C 8,4 C 81 % 1016,5 hPa 0,0 l/m 0 min 0 min 0,0 UV-I 0 W/m 0,0 km/h (0 Bft)
12.05.2013 23:40 9,8 C 8,4 C 81 % 1016,4 hPa 0,0 l/m 0 min 0 min 0,0 UV-I 0 W/m 0,0 km/h (0 Bft)
12.05.2013 23:42 9,8 C 8,4 C 81 % 1016,4 hPa 0,0 l/m 0 min 0 min 0,0 UV-I 0 W/m 0,0 km/h (0 Bft)
12.05.2013 23:44 9,8 C 7,9 C 81 % 1016,3 hPa 0,0 l/m 0 min 0 min 0,0 UV-I 0 W/m 0,0 km/h (0 Bft)
12.05.2013 23:46 9,8 C 7,9 C 81 % 1016,3 hPa 0,0 l/m 0 min 0 min 0,0 UV-I 0 W/m 0,0 km/h (0 Bft)
12.05.2013 23:48 9,7 C 7,9 C 81 % 1016,3 hPa 0,0 l/m 0 min 0 min 0,0 UV-I 0 W/m 0,0 km/h (0 Bft)
12.05.2013 23:50 9,7 C 7,9 C 81 % 1016,3 hPa 0,0 l/m 0 min 0 min 0,0 UV-I 0 W/m 0,0 km/h (0 Bft)
12.05.2013 23:52 9,7 C 7,9 C 81 % 1016,3 hPa 0,0 l/m 0 min 0 min 0,0 UV-I 0 W/m 0,0 km/h (0 Bft)
12.05.2013 23:54 9,7 C 7,9 C 81 % 1016,3 hPa 0,0 l/m 0 min 0 min 0,0 UV-I 0 W/m 0,0 km/h (0 Bft)
12.05.2013 23:56 9,7 C 8,4 C 81 % 1016,2 hPa 0,0 l/m 0 min 0 min 0,0 UV-I 0 W/m 0,0 km/h (0 Bft)
12.05.2013 23:58 9,6 C 8,4 C 81 % 1016,2 hPa 0,0 l/m 0 min 0 min 0,0 UV-I 0 W/m 5,1 km/h (1 Bft)
_ Min-Zeit 09:12 07:30 16:18 04:46 - - - - - 02:26
Minimum _ 6,3 C 5,1 C 67 % 1010,8 hPa - - - - - 0,0 km/h (0 Bft)
_ Max-Zeit 16:14 12:28 03:46 21:56 07:26 08:10 00:00 14:46 14:02 12:00
Maximum _ 14,2 C 18,4 C 96 % 1016,8 hPa 0,6 l/m 2 min 2 min 4,2 UV-I 1081 W/m 33,5 km/h
N-NW (5 Bft)
Durchschnitt _ 10,0 C 9,7 C 84 % 1013,8 hPa #5,6 l/m #4:18 h #6:07 h 2,0 UV-I 313 W/m 10,0 km/h (2 Bft)
© 2013 W. Hausmann